Wetterdaten: Sonntag, 09.02.2020
Datum Zeit Temp. Aussen Temp. o. S. Temp +5cm Feuchte Auss Luftdruck Regen Sonnenschein Regendauer Solar Windben Empfang
09.02.2020 00:00 8,3 C 6,7 C 6,1 C 88 % 1019,8 hPa 0,0 l/m 0 min 0 min 0 W/m 12,9 km/h (3 Bft) 100,00 %
09.02.2020 00:02 8,2 C 6,7 C 6,1 C 88 % 1019,8 hPa 0,0 l/m 0 min 0 min 0 W/m 12,9 km/h (3 Bft) 97,56 %
09.02.2020 00:04 8,2 C 6,7 C 6,1 C 88 % 1019,8 hPa 0,0 l/m 0 min 0 min 0 W/m 12,9 km/h (3 Bft) 100,00 %
09.02.2020 00:08 8,1 C 6,7 C 6,1 C 88 % 1019,8 hPa 0,0 l/m 0 min 0 min 0 W/m 16,1 km/h (3 Bft) 97,87 %
09.02.2020 00:10 8,1 C 6,7 C 6,1 C 88 % 1019,7 hPa 0,0 l/m 0 min 0 min 0 W/m 6,4 km/h (2 Bft) 97,87 %
09.02.2020 00:12 8,1 C 6,7 C 6,1 C 88 % 1019,7 hPa 0,0 l/m 0 min 0 min 0 W/m 16,1 km/h (3 Bft) 97,87 %
09.02.2020 00:14 8,0 C 6,7 C 6,1 C 88 % 1019,7 hPa 0,0 l/m 0 min 0 min 0 W/m 12,9 km/h (3 Bft) 97,87 %
09.02.2020 00:16 7,9 C 6,7 C 5,6 C 89 % 1019,7 hPa 0,0 l/m 0 min 0 min 0 W/m 12,9 km/h (3 Bft) 97,83 %
09.02.2020 00:18 7,9 C 6,7 C 5,6 C 89 % 1019,7 hPa 0,0 l/m 0 min 0 min 0 W/m 12,9 km/h (3 Bft) 97,87 %
09.02.2020 00:20 7,9 C 6,7 C 5,6 C 89 % 1019,6 hPa 0,0 l/m 0 min 0 min 0 W/m 12,9 km/h (3 Bft) 95,74 %
09.02.2020 00:22 7,8 C 6,7 C 5,6 C 89 % 1019,5 hPa 0,0 l/m 0 min 0 min 0 W/m 12,9 km/h (3 Bft) 95,74 %
09.02.2020 00:24 7,8 C 6,7 C 5,6 C 89 % 1019,5 hPa 0,0 l/m 0 min 0 min 0 W/m 16,1 km/h (3 Bft) 97,87 %
09.02.2020 00:26 7,8 C 6,7 C 5,6 C 89 % 1019,5 hPa 0,0 l/m 0 min 0 min 0 W/m 6,4 km/h (2 Bft) 97,87 %
09.02.2020 00:28 7,7 C 6,1 C 5,6 C 89 % 1019,4 hPa 0,0 l/m 0 min 0 min 0 W/m 6,4 km/h (2 Bft) 97,83 %
09.02.2020 00:30 7,7 C 6,1 C 5,6 C 89 % 1019,3 hPa 0,0 l/m 0 min 0 min 0 W/m 12,9 km/h (3 Bft) 97,87 %
09.02.2020 00:32 7,6 C 6,1 C 5,6 C 89 % 1019,3 hPa 0,0 l/m 0 min 0 min 0 W/m 12,9 km/h (3 Bft) 97,87 %
09.02.2020 00:34 7,6 C 6,1 C 5,6 C 89 % 1019,2 hPa 0,0 l/m 0 min 0 min 0 W/m 16,1 km/h (3 Bft) 97,87 %
09.02.2020 00:36 7,6 C 6,1 C 5,6 C 89 % 1019,3 hPa 0,0 l/m 0 min 0 min 0 W/m 6,4 km/h (2 Bft) 95,74 %
09.02.2020 00:38 7,5 C 6,1 C 5,6 C 89 % 1019,3 hPa 0,0 l/m 0 min 0 min 0 W/m 12,9 km/h (3 Bft) 95,74 %
09.02.2020 00:40 7,5 C 6,1 C 5,6 C 90 % 1019,2 hPa 0,0 l/m 0 min 0 min 0 W/m 16,1 km/h (3 Bft) 97,83 %
09.02.2020 00:42 7,4 C 6,1 C 5,6 C 90 % 1019,2 hPa 0,0 l/m 0 min 0 min 0 W/m 12,9 km/h (3 Bft) 97,87 %
09.02.2020 00:44 7,4 C 6,1 C 5,6 C 90 % 1019,2 hPa 0,0 l/m 0 min 0 min 0 W/m 12,9 km/h (3 Bft) 97,87 %
09.02.2020 00:46 7,4 C 6,1 C 5,6 C 90 % 1019,2 hPa 0,0 l/m 0 min 0 min 0 W/m 12,9 km/h (3 Bft) 97,87 %
09.02.2020 00:48 7,3 C 6,1 C 5,6 C 90 % 1019,2 hPa 0,0 l/m 0 min 0 min 0 W/m 12,9 km/h (3 Bft) 97,87 %
09.02.2020 00:50 7,3 C 6,1 C 5,0 C 90 % 1019,2 hPa 0,0 l/m 0 min 0 min 0 W/m 6,4 km/h (2 Bft) 97,87 %
09.02.2020 00:52 7,3 C 6,1 C 5,0 C 90 % 1019,2 hPa 0,0 l/m 0 min 0 min 0 W/m 6,4 km/h (2 Bft) 97,83 %
09.02.2020 00:54 7,2 C 6,1 C 5,0 C 90 % 1019,2 hPa 0,0 l/m 0 min 0 min 0 W/m 16,1 km/h (3 Bft) 97,87 %
09.02.2020 00:56 7,2 C 6,1 C 5,0 C 90 % 1019,2 hPa 0,0 l/m 0 min 0 min 0 W/m 16,1 km/h (3 Bft) 95,74 %
09.02.2020 00:58 7,2 C 6,1 C 5,0 C 90 % 1019,3 hPa 0,0 l/m 0 min 0 min 0 W/m 12,9 km/h (3 Bft) 100,00 %
09.02.2020 01:00 7,1 C 6,1 C 5,0 C 90 % 1019,2 hPa 0,0 l/m 0 min 0 min 0 W/m 16,1 km/h (3 Bft) 97,87 %
09.02.2020 01:02 7,1 C 6,1 C 5,0 C 90 % 1019,2 hPa 0,0 l/m 0 min 0 min 0 W/m 12,9 km/h (3 Bft) 97,87 %
09.02.2020 01:04 7,1 C 5,6 C 5,0 C 90 % 1019,2 hPa 0,0 l/m 0 min 0 min 0 W/m 16,1 km/h (3 Bft) 100,00 %
09.02.2020 01:06 7,0 C 5,6 C 5,0 C 90 % 1019,2 hPa 0,0 l/m 0 min 0 min 0 W/m 6,4 km/h (2 Bft) 100,00 %
09.02.2020 01:08 7,0 C 5,6 C 5,0 C 90 % 1019,2 hPa 0,0 l/m 0 min 0 min 0 W/m 12,9 km/h (3 Bft) 100,00 %
09.02.2020 01:10 6,9 C 5,6 C 5,0 C 91 % 1019,2 hPa 0,0 l/m 0 min 0 min 0 W/m 12,9 km/h (3 Bft) 100,00 %
09.02.2020 01:12 6,9 C 5,6 C 5,0 C 91 % 1019,2 hPa 0,0 l/m 0 min 0 min 0 W/m 6,4 km/h (2 Bft) 97,87 %
09.02.2020 01:14 6,9 C 5,6 C 5,0 C 91 % 1019,1 hPa 0,0 l/m 0 min 0 min 0 W/m 6,4 km/h (2 Bft) 52,38 %
09.02.2020 01:16 6,8 C 5,6 C 5,0 C 91 % 1019,2 hPa 0,0 l/m 0 min 0 min 0 W/m 6,4 km/h (2 Bft) 95,74 %
09.02.2020 01:18 6,8 C 5,6 C 5,0 C 91 % 1019,1 hPa 0,0 l/m 0 min 0 min 0 W/m 12,9 km/h (3 Bft) 100,00 %
09.02.2020 01:20 6,8 C 5,6 C 5,0 C 91 % 1019,0 hPa 0,0 l/m 0 min 0 min 0 W/m 12,9 km/h (3 Bft) 97,87 %
09.02.2020 01:22 6,8 C 5,6 C 5,0 C 91 % 1018,9 hPa 0,0 l/m 0 min 0 min 0 W/m 16,1 km/h (3 Bft) 97,87 %
09.02.2020 01:24 6,7 C 5,6 C 5,0 C 91 % 1018,8 hPa 0,0 l/m 0 min 0 min 0 W/m 12,9 km/h (3 Bft) 97,87 %
09.02.2020 01:26 6,7 C 5,6 C 5,0 C 91 % 1018,8 hPa 0,0 l/m 0 min 0 min 0 W/m 6,4 km/h (2 Bft) 97,83 %
09.02.2020 01:28 6,7 C 5,6 C 5,0 C 91 % 1018,7 hPa 0,0 l/m 0 min 0 min 0 W/m 16,1 km/h (3 Bft) 97,87 %
09.02.2020 01:30 6,6 C 5,6 C 5,0 C 91 % 1018,7 hPa 0,0 l/m 0 min 0 min 0 W/m 6,4 km/h (2 Bft) 97,87 %
09.02.2020 01:32 6,6 C 5,6 C 5,0 C 91 % 1018,6 hPa 0,0 l/m 0 min 0 min 0 W/m 19,3 km/h (3 Bft) 95,74 %
09.02.2020 01:34 6,6 C 5,6 C 5,0 C 91 % 1018,6 hPa 0,0 l/m 0 min 0 min 0 W/m 12,9 km/h (3 Bft) 95,74 %
09.02.2020 01:36 6,6 C 5,6 C 5,0 C 91 % 1018,6 hPa 0,0 l/m 0 min 0 min 0 W/m 9,7 km/h (2 Bft) 97,87 %
09.02.2020 01:38 6,6 C 5,6 C 5,0 C 91 % 1018,6 hPa 0,0 l/m 0 min 0 min 0 W/m 16,1 km/h (3 Bft) 97,83 %
09.02.2020 01:40 6,5 C 5,6 C 5,0 C 91 % 1018,6 hPa 0,0 l/m 0 min 0 min 0 W/m 12,9 km/h (3 Bft) 97,87 %
09.02.2020 01:42 6,5 C 5,6 C 5,0 C 92 % 1018,6 hPa 0,0 l/m 0 min 0 min 0 W/m 16,1 km/h (3 Bft) 97,87 %
09.02.2020 01:44 6,5 C 5,6 C 4,4 C 92 % 1018,5 hPa 0,0 l/m 0 min 0 min 0 W/m 12,9 km/h (3 Bft) 97,87 %
09.02.2020 01:46 6,4 C 5,6 C 4,4 C 92 % 1018,5 hPa 0,0 l/m 0 min 0 min 0 W/m 6,4 km/h (2 Bft) 97,87 %
09.02.2020 01:48 6,4 C 5,6 C 4,4 C 92 % 1018,5 hPa 0,0 l/m 0 min 0 min 0 W/m 12,9 km/h (3 Bft) 97,87 %
09.02.2020 01:50 6,4 C 5,6 C 5,0 C 92 % 1018,4 hPa 0,0 l/m 0 min 0 min 0 W/m 16,1 km/h (3 Bft) 97,83 %
09.02.2020 01:52 6,4 C 5,6 C 4,4 C 92 % 1018,4 hPa 0,0 l/m 0 min 0 min 0 W/m 12,9 km/h (3 Bft) 97,87 %
09.02.2020 01:54 6,4 C 5,6 C 4,4 C 92 % 1018,4 hPa 0,0 l/m 0 min 0 min 0 W/m 12,9 km/h (3 Bft) 97,87 %
09.02.2020 01:56 6,4 C 5,6 C 4,4 C 92 % 1018,4 hPa 0,0 l/m 0 min 0 min 0 W/m 16,1 km/h (3 Bft) 97,87 %
09.02.2020 01:58 6,3 C 5,0 C 4,4 C 92 % 1018,4 hPa 0,0 l/m 0 min 0 min 0 W/m 6,4 km/h (2 Bft) 97,87 %
09.02.2020 02:00 6,3 C 5,0 C 4,4 C 92 % 1018,4 hPa 0,0 l/m 0 min 0 min 0 W/m 12,9 km/h (3 Bft) 97,87 %
09.02.2020 02:02 6,3 C 5,0 C 4,4 C 92 % 1018,5 hPa 0,0 l/m 0 min 0 min 0 W/m 12,9 km/h (3 Bft) 97,83 %
09.02.2020 02:04 6,3 C 5,0 C 4,4 C 92 % 1018,5 hPa 0,0 l/m 0 min 0 min 0 W/m 19,3 km/h (3 Bft) 100,00 %
09.02.2020 02:06 6,2 C 5,0 C 4,4 C 92 % 1018,4 hPa 0,0 l/m 0 min 0 min 0 W/m 12,9 km/h (3 Bft) 95,74 %
09.02.2020 02:08 6,2 C 5,0 C 4,4 C 93 % 1018,4 hPa 0,0 l/m 0 min 0 min 0 W/m 12,9 km/h (3 Bft) 97,87 %
09.02.2020 02:10 6,2 C 5,0 C 4,4 C 93 % 1018,4 hPa 0,0 l/m 0 min 0 min 0 W/m 12,9 km/h (3 Bft) 100,00 %
09.02.2020 02:12 6,2 C 5,0 C 4,4 C 93 % 1018,4 hPa 0,0 l/m 0 min 0 min 0 W/m 6,4 km/h (2 Bft) 100,00 %
09.02.2020 02:14 6,2 C 5,0 C 4,4 C 93 % 1018,4 hPa 0,0 l/m 0 min 0 min 0 W/m 12,9 km/h (3 Bft) 100,00 %
09.02.2020 02:16 6,1 C 5,0 C 4,4 C 93 % 1018,4 hPa 0,0 l/m 0 min 0 min 0 W/m 12,9 km/h (3 Bft) 97,87 %
09.02.2020 02:18 6,1 C 5,0 C 4,4 C 93 % 1018,4 hPa 0,0 l/m 0 min 0 min 0 W/m 6,4 km/h (2 Bft) 97,87 %
09.02.2020 02:20 6,1 C 5,0 C 4,4 C 93 % 1018,4 hPa 0,0 l/m 0 min 0 min 0 W/m 12,9 km/h (3 Bft) 97,87 %
09.02.2020 02:22 6,1 C 5,0 C 4,4 C 93 % 1018,4 hPa 0,0 l/m 0 min 0 min 0 W/m 6,4 km/h (2 Bft) 97,87 %
09.02.2020 02:24 6,1 C 5,0 C 4,4 C 93 % 1018,3 hPa 0,0 l/m 0 min 0 min 0 W/m 6,4 km/h (2 Bft) 97,83 %
09.02.2020 02:26 6,1 C 5,0 C 4,4 C 93 % 1018,2 hPa 0,0 l/m 0 min 0 min 0 W/m 12,9 km/h (3 Bft) 97,87 %
09.02.2020 02:28 6,0 C 5,0 C 4,4 C 93 % 1018,2 hPa 0,0 l/m 0 min 0 min 0 W/m 16,1 km/h (3 Bft) 97,87 %
09.02.2020 02:30 6,0 C 5,0 C 4,4 C 93 % 1018,1 hPa 0,0 l/m 0 min 0 min 0 W/m 12,9 km/h (3 Bft) 95,74 %
09.02.2020 02:32 6,0 C 5,0 C 4,4 C 93 % 1018,0 hPa 0,0 l/m 0 min 0 min 0 W/m 12,9 km/h (3 Bft) 95,74 %
09.02.2020 02:34 5,9 C 5,0 C 4,4 C 93 % 1018,0 hPa 0,0 l/m 0 min 0 min 0 W/m 12,9 km/h (3 Bft) 97,87 %
09.02.2020 02:36 5,9 C 5,0 C 4,4 C 93 % 1018,1 hPa 0,0 l/m 0 min 0 min 0 W/m 12,9 km/h (3 Bft) 93,48 %
09.02.2020 02:38 5,9 C 5,0 C 4,4 C 93 % 1018,1 hPa 0,0 l/m 0 min 0 min 0 W/m 6,4 km/h (2 Bft) 97,87 %
09.02.2020 02:40 5,9 C 5,0 C 4,4 C 93 % 1018,0 hPa 0,0 l/m 0 min 0 min 0 W/m 6,4 km/h (2 Bft) 97,87 %
09.02.2020 02:42 5,9 C 5,0 C 4,4 C 93 % 1018,1 hPa 0,0 l/m 0 min 0 min 0 W/m 12,9 km/h (3 Bft) 97,87 %
09.02.2020 02:44 5,9 C 5,0 C 4,4 C 93 % 1018,0 hPa 0,0 l/m 0 min 0 min 0 W/m 6,4 km/h (2 Bft) 97,87 %
09.02.2020 02:46 5,9 C 5,0 C 4,4 C 93 % 1018,0 hPa 0,0 l/m 0 min 0 min 0 W/m 3,2 km/h (1 Bft) 97,87 %
09.02.2020 02:48 5,8 C 5,0 C 3,9 C 93 % 1018,0 hPa 0,0 l/m 0 min 0 min 0 W/m 6,4 km/h (2 Bft) 97,83 %
09.02.2020 02:50 5,8 C 5,0 C 4,4 C 93 % 1017,9 hPa 0,0 l/m 0 min 0 min 0 W/m 19,3 km/h (3 Bft) 97,87 %
09.02.2020 02:52 5,8 C 5,0 C 4,4 C 93 % 1018,0 hPa 0,0 l/m 0 min 0 min 0 W/m 6,4 km/h (2 Bft) 97,87 %
09.02.2020 02:54 5,8 C 5,0 C 4,4 C 93 % 1017,9 hPa 0,0 l/m 0 min 0 min 0 W/m 6,4 km/h (2 Bft) 95,74 %
09.02.2020 02:56 5,8 C 5,0 C 4,4 C 93 % 1018,0 hPa 0,0 l/m 0 min 0 min 0 W/m 6,4 km/h (2 Bft) 97,87 %
09.02.2020 02:58 5,8 C 5,0 C 4,4 C 93 % 1017,9 hPa 0,0 l/m 0 min 0 min 0 W/m 6,4 km/h (2 Bft) 97,87 %
09.02.2020 03:00 5,8 C 5,0 C 4,4 C 93 % 1017,8 hPa 0,0 l/m 0 min 0 min 0 W/m 3,2 km/h (1 Bft) 97,83 %
09.02.2020 03:02 5,7 C 5,0 C 4,4 C 94 % 1017,8 hPa 0,0 l/m 0 min 0 min 0 W/m 6,4 km/h (2 Bft) 97,87 %
09.02.2020 03:04 5,8 C 5,0 C 4,4 C 94 % 1017,7 hPa 0,0 l/m 0 min 0 min 0 W/m 12,9 km/h (3 Bft) 95,74 %
09.02.2020 03:06 5,7 C 5,0 C 4,4 C 94 % 1017,7 hPa 0,0 l/m 0 min 0 min 0 W/m 6,4 km/h (2 Bft) 95,74 %
09.02.2020 03:08 5,7 C 5,0 C 4,4 C 94 % 1017,7 hPa 0,0 l/m 0 min 0 min 0 W/m 12,9 km/h (3 Bft) 93,62 %
09.02.2020 03:10 5,7 C 5,0 C 4,4 C 94 % 1017,7 hPa 0,0 l/m 0 min 0 min 0 W/m 6,4 km/h (2 Bft) 95,74 %
09.02.2020 03:12 5,7 C 5,0 C 4,4 C 94 % 1017,7 hPa 0,0 l/m 0 min 0 min 0 W/m 12,9 km/h (3 Bft) 95,65 %
09.02.2020 03:14 5,7 C 5,0 C 4,4 C 94 % 1017,6 hPa 0,0 l/m 0 min 0 min 0 W/m 6,4 km/h (2 Bft) 93,62 %
09.02.2020 03:16 5,7 C 5,0 C 4,4 C 94 % 1017,6 hPa 0,0 l/m 0 min 0 min 0 W/m 6,4 km/h (2 Bft) 95,74 %
09.02.2020 03:18 5,7 C 5,0 C 4,4 C 94 % 1017,6 hPa 0,0 l/m 0 min 0 min 0 W/m 12,9 km/h (3 Bft) 93,62 %
09.02.2020 03:20 5,7 C 5,0 C 4,4 C 94 % 1017,5 hPa 0,0 l/m 0 min 0 min 0 W/m 12,9 km/h (3 Bft) 95,74 %
09.02.2020 03:22 5,7 C 5,0 C 4,4 C 94 % 1017,5 hPa 0,0 l/m 0 min 0 min 0 W/m 12,9 km/h (3 Bft) 95,74 %
09.02.2020 03:24 5,7 C 5,0 C 4,4 C 94 % 1017,6 hPa 0,0 l/m 0 min 0 min 0 W/m 16,1 km/h (3 Bft) 97,83 %
09.02.2020 03:26 5,7 C 5,0 C 4,4 C 94 % 1017,6 hPa 0,0 l/m 0 min 0 min 0 W/m 12,9 km/h (3 Bft) 97,87 %
09.02.2020 03:28 5,7 C 5,0 C 4,4 C 94 % 1017,6 hPa 0,0 l/m 0 min 0 min 0 W/m 6,4 km/h (2 Bft) 97,87 %
09.02.2020 03:30 5,8 C 5,6 C 4,4 C 94 % 1017,8 hPa 0,0 l/m 0 min 0 min 0 W/m 16,1 km/h (3 Bft) 97,87 %
09.02.2020 03:32 5,8 C 5,6 C 4,4 C 94 % 1017,8 hPa 0,0 l/m 0 min 0 min 0 W/m 6,4 km/h (2 Bft) 95,74 %
09.02.2020 03:34 5,8 C 5,6 C 4,4 C 94 % 1017,7 hPa 0,0 l/m 0 min 0 min 0 W/m 6,4 km/h (2 Bft) 97,83 %
09.02.2020 03:36 5,8 C 5,6 C 4,4 C 94 % 1017,8 hPa 0,0 l/m 0 min 0 min 0 W/m 12,9 km/h (3 Bft) 97,87 %
09.02.2020 03:38 5,8 C 5,6 C 4,4 C 94 % 1017,7 hPa 0,0 l/m 0 min 0 min 0 W/m 19,3 km/h (3 Bft) 97,87 %
09.02.2020 03:40 5,8 C 5,6 C 4,4 C 94 % 1017,6 hPa 0,0 l/m 0 min 0 min 0 W/m 12,9 km/h (3 Bft) 95,74 %
09.02.2020 03:42 5,8 C 5,6 C 4,4 C 95 % 1017,6 hPa 0,0 l/m 0 min 0 min 0 W/m 6,4 km/h (2 Bft) 97,87 %
09.02.2020 03:44 5,9 C 5,6 C 4,4 C 95 % 1017,6 hPa 0,0 l/m 0 min 0 min 0 W/m 6,4 km/h (2 Bft) 97,87 %
09.02.2020 03:46 5,9 C 5,6 C 4,4 C 95 % 1017,5 hPa 0,0 l/m 0 min 0 min 0 W/m 16,1 km/h (3 Bft) 97,83 %
09.02.2020 03:48 5,9 C 5,6 C 4,4 C 95 % 1017,5 hPa 0,0 l/m 0 min 0 min 0 W/m 19,3 km/h (3 Bft) 95,74 %
09.02.2020 03:50 5,9 C 5,6 C 4,4 C 95 % 1017,5 hPa 0,0 l/m 0 min 0 min 0 W/m 3,2 km/h (1 Bft) 95,74 %
09.02.2020 03:52 5,9 C 5,6 C 4,4 C 95 % 1017,4 hPa 0,0 l/m 0 min 0 min 0 W/m 12,9 km/h (3 Bft) 95,74 %
09.02.2020 03:54 5,9 C 5,6 C 4,4 C 95 % 1017,4 hPa 0,0 l/m 0 min 0 min 0 W/m 16,1 km/h (3 Bft) 97,87 %
09.02.2020 03:56 5,9 C 5,6 C 4,4 C 95 % 1017,4 hPa 0,0 l/m 0 min 0 min 0 W/m 12,9 km/h (3 Bft) 97,87 %
09.02.2020 03:58 5,9 C 5,6 C 4,4 C 94 % 1017,4 hPa 0,0 l/m 0 min 0 min 0 W/m 12,9 km/h (3 Bft) 97,83 %
09.02.2020 04:00 5,9 C 5,6 C 4,4 C 94 % 1017,4 hPa 0,0 l/m 0 min 0 min 0 W/m 12,9 km/h (3 Bft) 95,74 %
09.02.2020 04:02 5,9 C 5,6 C 4,4 C 94 % 1017,4 hPa 0,0 l/m 0 min 0 min 0 W/m 16,1 km/h (3 Bft) 96,55 %
09.02.2020 04:04 5,9 C 5,6 C 4,4 C 94 % 1017,4 hPa 0,0 l/m 0 min 0 min 0 W/m 16,1 km/h (3 Bft) 97,87 %
09.02.2020 04:06 5,9 C 5,6 C 4,4 C 94 % 1017,3 hPa 0,0 l/m 0 min 0 min 0 W/m 12,9 km/h (3 Bft) 97,87 %
09.02.2020 04:08 6,0 C 5,6 C 4,4 C 94 % 1017,3 hPa 0,0 l/m 0 min 0 min 0 W/m 12,9 km/h (3 Bft) 97,87 %
09.02.2020 04:10 6,0 C 5,6 C 4,4 C 94 % 1017,3 hPa 0,0 l/m 0 min 0 min 0 W/m 12,9 km/h (3 Bft) 97,83 %
09.02.2020 04:12 6,0 C 5,6 C 4,4 C 94 % 1017,3 hPa 0,0 l/m 0 min 0 min 0 W/m 16,1 km/h (3 Bft) 97,87 %
09.02.2020 04:14 6,0 C 5,6 C 4,4 C 94 % 1017,3 hPa 0,0 l/m 0 min 0 min 0 W/m 16,1 km/h (3 Bft) 97,87 %
09.02.2020 04:16 6,0 C 5,6 C 4,4 C 94 % 1017,3 hPa 0,0 l/m 0 min 0 min 0 W/m 16,1 km/h (3 Bft) 97,87 %
09.02.2020 04:18 6,0 C 5,6 C 4,4 C 94 % 1017,2 hPa 0,0 l/m 0 min 0 min 0 W/m 12,9 km/h (3 Bft) 95,74 %
09.02.2020 04:20 6,0 C 5,6 C 4,4 C 94 % 1017,3 hPa 0,0 l/m 0 min 0 min 0 W/m 16,1 km/h (3 Bft) 97,87 %
09.02.2020 04:22 6,0 C 5,6 C 4,4 C 94 % 1017,3 hPa 0,0 l/m 0 min 0 min 0 W/m 12,9 km/h (3 Bft) 95,65 %
09.02.2020 04:24 6,0 C 5,6 C 5,0 C 94 % 1017,2 hPa 0,0 l/m 0 min 0 min 0 W/m 19,3 km/h (3 Bft) 97,87 %
09.02.2020 04:26 6,0 C 5,6 C 5,0 C 94 % 1017,3 hPa 0,0 l/m 0 min 0 min 0 W/m 16,1 km/h (3 Bft) 97,87 %
09.02.2020 04:28 6,1 C 5,6 C 5,0 C 94 % 1017,3 hPa 0,0 l/m 0 min 0 min 0 W/m 16,1 km/h (3 Bft) 97,87 %
09.02.2020 04:30 6,1 C 5,6 C 5,0 C 94 % 1017,4 hPa 0,0 l/m 0 min 0 min 0 W/m 12,9 km/h (3 Bft) 95,74 %
09.02.2020 04:32 6,1 C 5,6 C 5,0 C 94 % 1017,3 hPa 0,0 l/m 0 min 0 min 0 W/m 12,9 km/h (3 Bft) 97,87 %
09.02.2020 04:34 6,1 C 5,6 C 5,0 C 94 % 1017,3 hPa 0,0 l/m 0 min 0 min 0 W/m 16,1 km/h (3 Bft) 97,83 %
09.02.2020 04:36 6,1 C 5,6 C 5,0 C 94 % 1017,3 hPa 0,0 l/m 0 min 0 min 0 W/m 12,9 km/h (3 Bft) 100,00 %
09.02.2020 04:38 6,1 C 5,6 C 5,0 C 94 % 1017,3 hPa 0,0 l/m 0 min 0 min 0 W/m 6,4 km/h (2 Bft) 100,00 %
09.02.2020 04:40 6,1 C 5,6 C 5,0 C 94 % 1017,2 hPa 0,0 l/m 0 min 0 min 0 W/m 12,9 km/h (3 Bft) 100,00 %
09.02.2020 04:42 6,1 C 5,6 C 5,0 C 94 % 1017,3 hPa 0,0 l/m 0 min 0 min 0 W/m 12,9 km/h (3 Bft) 97,87 %
09.02.2020 04:44 6,1 C 5,6 C 5,0 C 94 % 1017,3 hPa 0,0 l/m 0 min 0 min 0 W/m 12,9 km/h (3 Bft) 95,74 %
09.02.2020 04:46 6,1 C 5,6 C 5,0 C 94 % 1017,3 hPa 0,0 l/m 0 min 0 min 0 W/m 12,9 km/h (3 Bft) 97,83 %
09.02.2020 04:48 6,1 C 5,6 C 5,0 C 94 % 1017,2 hPa 0,0 l/m 0 min 0 min 0 W/m 12,9 km/h (3 Bft) 97,87 %
09.02.2020 04:50 6,2 C 5,6 C 5,0 C 94 % 1017,2 hPa 0,0 l/m 0 min 0 min 0 W/m 12,9 km/h (3 Bft) 100,00 %
09.02.2020 04:52 6,2 C 5,6 C 5,0 C 94 % 1017,1 hPa 0,0 l/m 0 min 0 min 0 W/m 12,9 km/h (3 Bft) 97,87 %
09.02.2020 04:54 6,2 C 5,6 C 5,0 C 94 % 1017,0 hPa 0,0 l/m 0 min 0 min 0 W/m 19,3 km/h (3 Bft) 100,00 %
09.02.2020 04:56 6,2 C 5,6 C 5,0 C 94 % 1017,0 hPa 0,0 l/m 0 min 0 min 0 W/m 16,1 km/h (3 Bft) 100,00 %
09.02.2020 04:58 6,2 C 6,1 C 5,0 C 94 % 1016,9 hPa 0,0 l/m 0 min 0 min 0 W/m 12,9 km/h (3 Bft) 100,00 %
09.02.2020 05:00 6,3 C 6,1 C 5,0 C 94 % 1016,7 hPa 0,0 l/m 0 min 0 min 0 W/m 19,3 km/h (3 Bft) 100,00 %
09.02.2020 05:02 6,3 C 6,1 C 5,0 C 94 % 1016,6 hPa 0,0 l/m 0 min 0 min 0 W/m 16,1 km/h (3 Bft) 97,87 %
09.02.2020 05:04 6,3 C 6,1 C 5,0 C 94 % 1016,5 hPa 0,0 l/m 0 min 0 min 0 W/m 22,5 km/h (4 Bft) 100,00 %
09.02.2020 05:06 6,3 C 6,1 C 5,0 C 94 % 1016,5 hPa 0,0 l/m 0 min 0 min 0 W/m 19,3 km/h (3 Bft) 100,00 %
09.02.2020 05:08 6,3 C 6,1 C 5,0 C 94 % 1016,5 hPa 0,0 l/m 0 min 0 min 0 W/m 12,9 km/h (3 Bft) 100,00 %
09.02.2020 05:10 6,3 C 6,1 C 5,0 C 94 % 1016,4 hPa 0,0 l/m 0 min 0 min 0 W/m 19,3 km/h (3 Bft) 100,00 %
09.02.2020 05:12 6,3 C 6,1 C 5,0 C 94 % 1016,4 hPa 0,0 l/m 0 min 0 min 0 W/m 19,3 km/h (3 Bft) 100,00 %
09.02.2020 05:14 6,3 C 6,1 C 5,6 C 94 % 1016,3 hPa 0,0 l/m 0 min 0 min 0 W/m 19,3 km/h (3 Bft) 100,00 %
09.02.2020 05:16 6,4 C 6,1 C 5,6 C 94 % 1016,2 hPa 0,0 l/m 0 min 0 min 0 W/m 22,5 km/h (4 Bft) 100,00 %
09.02.2020 05:18 6,4 C 6,1 C 5,6 C 94 % 1016,2 hPa 0,0 l/m 0 min 0 min 0 W/m 22,5 km/h (4 Bft) 100,00 %
09.02.2020 05:20 6,4 C 6,1 C 5,6 C 94 % 1016,2 hPa 0,0 l/m 0 min 0 min 0 W/m 16,1 km/h (3 Bft) 100,00 %
09.02.2020 05:22 6,4 C 6,1 C 5,0 C 94 % 1016,2 hPa 0,0 l/m 0 min 0 min 0 W/m 19,3 km/h (3 Bft) 100,00 %
09.02.2020 05:24 6,5 C 6,1 C 5,0 C 94 % 1016,2 hPa 0,0 l/m 0 min 0 min 0 W/m 16,1 km/h (3 Bft) 100,00 %
09.02.2020 05:26 6,5 C 6,1 C 5,0 C 94 % 1016,2 hPa 0,0 l/m 0 min 0 min 0 W/m 12,9 km/h (3 Bft) 100,00 %
09.02.2020 05:28 6,5 C 6,1 C 5,6 C 93 % 1016,2 hPa 0,0 l/m 0 min 0 min 0 W/m 19,3 km/h (3 Bft) 100,00 %
09.02.2020 05:30 6,5 C 6,1 C 5,6 C 93 % 1016,2 hPa 0,0 l/m 0 min 0 min 0 W/m 22,5 km/h (4 Bft) 97,83 %
09.02.2020 05:32 6,5 C 6,1 C 5,6 C 93 % 1016,1 hPa 0,0 l/m 0 min 0 min 0 W/m 19,3 km/h (3 Bft) 100,00 %
09.02.2020 05:34 6,5 C 6,1 C 5,6 C 93 % 1016,0 hPa 0,0 l/m 0 min 0 min 0 W/m 16,1 km/h (3 Bft) 100,00 %
09.02.2020 05:36 6,6 C 6,1 C 5,6 C 93 % 1015,9 hPa 0,0 l/m 0 min 0 min 0 W/m 16,1 km/h (3 Bft) 97,87 %
09.02.2020 05:38 6,5 C 5,6 C 5,0 C 93 % 1015,8 hPa 0,0 l/m 0 min 0 min 0 W/m 16,1 km/h (3 Bft) 100,00 %
09.02.2020 05:40 6,5 C 5,6 C 5,0 C 93 % 1015,8 hPa 0,0 l/m 0 min 0 min 0 W/m 19,3 km/h (3 Bft) 100,00 %
09.02.2020 05:42 6,5 C 5,6 C 5,0 C 93 % 1015,8 hPa 0,0 l/m 0 min 0 min 0 W/m 19,3 km/h (3 Bft) 97,83 %
09.02.2020 05:44 6,5 C 5,6 C 5,0 C 93 % 1015,9 hPa 0,0 l/m 0 min 0 min 0 W/m 19,3 km/h (3 Bft) 100,00 %
09.02.2020 05:46 6,5 C 5,6 C 5,0 C 93 % 1015,8 hPa 0,0 l/m 0 min 0 min 0 W/m 25,7 km/h (4 Bft) 95,74 %
09.02.2020 05:48 6,4 C 5,6 C 5,0 C 93 % 1015,8 hPa 0,0 l/m 0 min 0 min 0 W/m 25,7 km/h (4 Bft) 97,87 %
09.02.2020 05:50 6,4 C 5,6 C 5,0 C 93 % 1015,8 hPa 0,0 l/m 0 min 0 min 0 W/m 25,7 km/h (4 Bft) 95,74 %
09.02.2020 05:52 6,4 C 5,6 C 5,0 C 93 % 1015,6 hPa 0,0 l/m 0 min 0 min 0 W/m 25,7 km/h (4 Bft) 97,87 %
09.02.2020 05:54 6,5 C 6,1 C 5,0 C 93 % 1015,6 hPa 0,0 l/m 0 min 0 min 0 W/m 32,2 km/h (5 Bft) 97,83 %
09.02.2020 05:56 6,5 C 6,1 C 5,0 C 93 % 1015,4 hPa 0,0 l/m 0 min 0 min 0 W/m 35,4 km/h (5 Bft) 95,74 %
09.02.2020 05:58 6,5 C 6,1 C 5,6 C 93 % 1015,3 hPa 0,0 l/m 0 min 0 min 0 W/m 19,3 km/h (3 Bft) 93,62 %
09.02.2020 06:00 6,5 C 6,1 C 5,6 C 93 % 1015,3 hPa 0,0 l/m 0 min 0 min 0 W/m 25,7 km/h (4 Bft) 93,62 %
09.02.2020 06:02 6,5 C 6,1 C 5,6 C 93 % 1015,3 hPa 0,0 l/m 0 min 0 min 0 W/m 22,5 km/h (4 Bft) 93,62 %
09.02.2020 06:04 6,5 C 6,1 C 5,6 C 93 % 1015,3 hPa 0,0 l/m 0 min 0 min 0 W/m 22,5 km/h (4 Bft) 95,74 %
09.02.2020 06:06 6,5 C 6,1 C 5,6 C 93 % 1015,3 hPa 0,0 l/m 0 min 0 min 0 W/m 25,7 km/h (4 Bft) 93,48 %
09.02.2020 06:08 6,5 C 6,1 C 5,6 C 93 % 1015,4 hPa 0,0 l/m 0 min 0 min 0 W/m 12,9 km/h (3 Bft) 93,62 %
09.02.2020 06:10 6,5 C 6,1 C 5,6 C 93 % 1015,3 hPa 0,0 l/m 0 min 0 min 0 W/m 19,3 km/h (3 Bft) 95,74 %
09.02.2020 06:12 6,6 C 6,1 C 5,6 C 93 % 1015,2 hPa 0,0 l/m 0 min 0 min 0 W/m 29,0 km/h (5 Bft) 95,74 %
09.02.2020 06:14 6,6 C 6,1 C 5,6 C 93 % 1015,2 hPa 0,0 l/m 0 min 0 min 0 W/m 22,5 km/h (4 Bft) 95,74 %
09.02.2020 06:16 6,6 C 6,1 C 5,6 C 93 % 1015,1 hPa 0,0 l/m 0 min 0 min 0 W/m 19,3 km/h (3 Bft) 93,62 %
09.02.2020 06:18 6,6 C 6,1 C 5,6 C 93 % 1015,0 hPa 0,0 l/m 0 min 0 min 0 W/m 22,5 km/h (4 Bft) 95,65 %
09.02.2020 06:20 6,6 C 6,1 C 5,6 C 92 % 1015,0 hPa 0,0 l/m 0 min 0 min 0 W/m 22,5 km/h (4 Bft) 95,74 %
09.02.2020 06:22 6,6 C 6,1 C 5,6 C 92 % 1014,9 hPa 0,0 l/m 0 min 0 min 0 W/m 25,7 km/h (4 Bft) 95,74 %
09.02.2020 06:24 6,6 C 6,1 C 5,6 C 92 % 1014,8 hPa 0,0 l/m 0 min 0 min 0 W/m 19,3 km/h (3 Bft) 95,74 %
09.02.2020 06:26 6,6 C 6,1 C 5,6 C 92 % 1014,7 hPa 0,0 l/m 0 min 0 min 0 W/m 25,7 km/h (4 Bft) 91,49 %
09.02.2020 06:28 6,6 C 6,1 C 5,6 C 92 % 1014,7 hPa 0,0 l/m 0 min 0 min 0 W/m 19,3 km/h (3 Bft) 95,74 %
09.02.2020 06:30 6,6 C 6,1 C 5,6 C 92 % 1014,6 hPa 0,0 l/m 0 min 0 min 0 W/m 25,7 km/h (4 Bft) 97,83 %
09.02.2020 06:32 6,6 C 6,1 C 5,6 C 92 % 1014,5 hPa 0,0 l/m 0 min 0 min 0 W/m 19,3 km/h (3 Bft) 93,62 %
09.02.2020 06:34 6,6 C 6,1 C 5,6 C 92 % 1014,4 hPa 0,0 l/m 0 min 0 min 0 W/m 22,5 km/h (4 Bft) 93,62 %
09.02.2020 06:36 6,6 C 6,1 C 5,6 C 92 % 1014,4 hPa 0,0 l/m 0 min 0 min 0 W/m 22,5 km/h (4 Bft) 93,62 %
09.02.2020 06:38 6,6 C 6,1 C 5,6 C 92 % 1014,4 hPa 0,0 l/m 0 min 0 min 0 W/m 19,3 km/h (3 Bft) 95,74 %
09.02.2020 06:40 6,7 C 6,1 C 5,6 C 92 % 1014,4 hPa 0,0 l/m 0 min 0 min 0 W/m 22,5 km/h (4 Bft) 95,74 %
09.02.2020 06:42 6,7 C 6,1 C 5,6 C 92 % 1014,4 hPa 0,0 l/m 0 min 0 min 0 W/m 22,5 km/h (4 Bft) 95,65 %
09.02.2020 06:44 6,7 C 6,1 C 5,6 C 92 % 1014,4 hPa 0,0 l/m 0 min 0 min 0 W/m 16,1 km/h (3 Bft) 93,62 %
09.02.2020 06:46 6,7 C 6,1 C 5,6 C 92 % 1014,3 hPa 0,0 l/m 0 min 0 min 0 W/m 29,0 km/h (5 Bft) 93,62 %
09.02.2020 06:48 6,7 C 6,1 C 5,6 C 92 % 1014,3 hPa 0,0 l/m 0 min 0 min 0 W/m 19,3 km/h (3 Bft) 95,74 %
09.02.2020 06:50 6,7 C 6,1 C 5,6 C 92 % 1014,3 hPa 0,0 l/m 0 min 0 min 0 W/m 22,5 km/h (4 Bft) 95,74 %
09.02.2020 06:52 6,7 C 6,1 C 5,6 C 92 % 1014,1 hPa 0,0 l/m 0 min 0 min 0 W/m 19,3 km/h (3 Bft) 95,65 %
09.02.2020 06:54 6,7 C 6,1 C 5,6 C 92 % 1014,1 hPa 0,0 l/m 0 min 0 min 0 W/m 19,3 km/h (3 Bft) 93,62 %
09.02.2020 06:56 6,7 C 6,1 C 5,6 C 92 % 1014,2 hPa 0,0 l/m 0 min 0 min 0 W/m 19,3 km/h (3 Bft) 97,87 %
09.02.2020 06:58 6,7 C 6,1 C 5,6 C 92 % 1014,2 hPa 0,0 l/m 0 min 0 min 0 W/m 16,1 km/h (3 Bft) 97,87 %
09.02.2020 07:00 6,7 C 6,1 C 5,6 C 92 % 1014,2 hPa 0,0 l/m 0 min 0 min 0 W/m 16,1 km/h (3 Bft) 97,87 %
09.02.2020 07:02 6,7 C 6,1 C 5,6 C 92 % 1014,1 hPa 0,0 l/m 0 min 0 min 0 W/m 16,1 km/h (3 Bft) 97,87 %
09.02.2020 07:04 6,8 C 6,1 C 5,6 C 92 % 1014,1 hPa 0,0 l/m 0 min 0 min 0 W/m 22,5 km/h (4 Bft) 97,83 %
09.02.2020 07:06 6,8 C 6,1 C 5,6 C 92 % 1014,1 hPa 0,0 l/m 0 min 0 min 0 W/m 16,1 km/h (3 Bft) 95,74 %
09.02.2020 07:08 6,8 C 6,1 C 5,6 C 92 % 1014,0 hPa 0,0 l/m 0 min 0 min 0 W/m 22,5 km/h (4 Bft) 97,87 %
09.02.2020 07:10 6,8 C 6,1 C 5,6 C 92 % 1013,9 hPa 0,0 l/m 0 min 0 min 0 W/m 19,3 km/h (3 Bft) 97,87 %
09.02.2020 07:12 6,8 C 6,1 C 5,6 C 92 % 1013,8 hPa 0,0 l/m 0 min 0 min 0 W/m 19,3 km/h (3 Bft) 97,87 %
09.02.2020 07:14 6,8 C 6,1 C 5,6 C 92 % 1013,7 hPa 0,0 l/m 0 min 0 min 0 W/m 19,3 km/h (3 Bft) 97,87 %
09.02.2020 07:16 6,8 C 6,1 C 5,6 C 92 % 1013,7 hPa 0,0 l/m 0 min 0 min 0 W/m 16,1 km/h (3 Bft) 95,65 %
09.02.2020 07:18 6,8 C 6,1 C 5,6 C 92 % 1013,7 hPa 0,0 l/m 0 min 0 min 0 W/m 16,1 km/h (3 Bft) 100,00 %
09.02.2020 07:20 6,8 C 6,1 C 5,6 C 92 % 1013,6 hPa 0,0 l/m 0 min 0 min 0 W/m 16,1 km/h (3 Bft) 100,00 %
09.02.2020 07:22 6,8 C 6,1 C 5,6 C 92 % 1013,7 hPa 0,0 l/m 0 min 0 min 0 W/m 12,9 km/h (3 Bft) 100,00 %
09.02.2020 07:24 6,8 C 6,1 C 5,6 C 92 % 1013,6 hPa 0,0 l/m 0 min 0 min 0 W/m 16,1 km/h (3 Bft) 100,00 %
09.02.2020 07:26 6,8 C 6,1 C 5,6 C 92 % 1013,6 hPa 0,0 l/m 0 min 0 min 0 W/m 19,3 km/h (3 Bft) 100,00 %
09.02.2020 07:28 6,8 C 6,1 C 5,6 C 92 % 1013,5 hPa 0,0 l/m 0 min 0 min 0 W/m 22,5 km/h (4 Bft) 100,00 %
09.02.2020 07:30 6,9 C 6,1 C 5,6 C 92 % 1013,5 hPa 0,0 l/m 0 min 0 min 0 W/m 19,3 km/h (3 Bft) 100,00 %
09.02.2020 07:32 6,9 C 6,1 C 5,6 C 92 % 1013,4 hPa 0,0 l/m 0 min 0 min 0 W/m 19,3 km/h (3 Bft) 100,00 %
09.02.2020 07:34 6,9 C 6,1 C 5,6 C 92 % 1013,4 hPa 0,0 l/m 0 min 0 min 0 W/m 16,1 km/h (3 Bft) 100,00 %
09.02.2020 07:36 6,9 C 6,1 C 5,6 C 92 % 1013,4 hPa 0,0 l/m 0 min 0 min 0 W/m 19,3 km/h (3 Bft) 95,74 %
09.02.2020 07:38 6,9 C 6,1 C 5,6 C 92 % 1013,3 hPa 0,0 l/m 0 min 0 min 0 W/m 25,7 km/h (4 Bft) 97,87 %
09.02.2020 07:40 6,9 C 6,1 C 5,6 C 92 % 1013,3 hPa 0,0 l/m 0 min 0 min 0 W/m 19,3 km/h (3 Bft) 100,00 %
09.02.2020 07:42 6,9 C 6,1 C 5,6 C 92 % 1013,1 hPa 0,0 l/m 0 min 0 min 0 W/m 19,3 km/h (3 Bft) 95,74 %
09.02.2020 07:44 6,9 C 6,1 C 5,6 C 92 % 1013,1 hPa 0,0 l/m 0 min 0 min 0 W/m 22,5 km/h (4 Bft) 100,00 %
09.02.2020 07:46 6,9 C 6,1 C 5,6 C 92 % 1013,0 hPa 0,0 l/m 0 min 0 min 0 W/m 19,3 km/h (3 Bft) 100,00 %
09.02.2020 07:48 6,9 C 6,1 C 5,6 C 92 % 1012,9 hPa 0,0 l/m 0 min 0 min 0 W/m 16,1 km/h (3 Bft) 100,00 %
09.02.2020 07:50 6,9 C 6,1 C 5,6 C 92 % 1012,9 hPa 0,0 l/m 0 min 0 min 0 W/m 16,1 km/h (3 Bft) 100,00 %
09.02.2020 07:52 6,9 C 6,1 C 5,6 C 92 % 1012,8 hPa 0,0 l/m 0 min 0 min 0 W/m 22,5 km/h (4 Bft) 97,87 %
09.02.2020 07:54 6,9 C 6,1 C 5,6 C 92 % 1012,8 hPa 0,0 l/m 0 min 0 min 0 W/m 25,7 km/h (4 Bft) 100,00 %
09.02.2020 07:56 6,9 C 6,1 C 5,6 C 92 % 1012,8 hPa 0,0 l/m 0 min 0 min 0 W/m 19,3 km/h (3 Bft) 100,00 %
09.02.2020 07:58 6,9 C 6,1 C 5,6 C 92 % 1012,7 hPa 0,0 l/m 0 min 0 min 0 W/m 25,7 km/h (4 Bft) 100,00 %
09.02.2020 08:00 6,9 C 6,1 C 5,6 C 92 % 1012,7 hPa 0,0 l/m 0 min 0 min 0 W/m 16,1 km/h (3 Bft) 100,00 %
09.02.2020 08:02 6,9 C 6,1 C 5,6 C 92 % 1012,7 hPa 0,0 l/m 0 min 0 min 1 W/m 19,3 km/h (3 Bft) 100,00 %
09.02.2020 08:04 6,9 C 6,1 C 5,6 C 92 % 1012,7 hPa 0,0 l/m 0 min 0 min 6 W/m 16,1 km/h (3 Bft) 100,00 %
09.02.2020 08:06 6,9 C 6,1 C 5,6 C 92 % 1012,6 hPa 0,0 l/m 0 min 0 min 8 W/m 16,1 km/h (3 Bft) 95,74 %
09.02.2020 08:08 6,9 C 6,1 C 5,6 C 92 % 1012,5 hPa 0,0 l/m 0 min 0 min 11 W/m 19,3 km/h (3 Bft) 100,00 %
09.02.2020 08:10 6,9 C 6,1 C 5,6 C 92 % 1012,4 hPa 0,0 l/m 0 min 0 min 12 W/m 16,1 km/h (3 Bft) 100,00 %
09.02.2020 08:12 6,9 C 6,1 C 5,6 C 92 % 1012,4 hPa 0,0 l/m 0 min 0 min 14 W/m 16,1 km/h (3 Bft) 100,00 %
09.02.2020 08:14 6,9 C 6,1 C 5,6 C 92 % 1012,4 hPa 0,0 l/m 0 min 0 min 16 W/m 16,1 km/h (3 Bft) 100,00 %
09.02.2020 08:16 6,9 C 6,1 C 5,6 C 92 % 1012,3 hPa 0,0 l/m 0 min 0 min 17 W/m 6,4 km/h (2 Bft) 97,87 %
09.02.2020 08:18 6,9 C 6,7 C 5,6 C 92 % 1012,3 hPa 0,0 l/m 0 min 0 min 19 W/m 16,1 km/h (3 Bft) 100,00 %
09.02.2020 08:20 6,9 C 6,7 C 5,6 C 92 % 1012,2 hPa 0,0 l/m 2 min 0 min 21 W/m 16,1 km/h (3 Bft) 100,00 %
09.02.2020 08:22 6,9 C 6,7 C 5,6 C 92 % 1012,1 hPa 0,0 l/m 2 min 0 min 21 W/m 16,1 km/h (3 Bft) 97,87 %
09.02.2020 08:24 6,9 C 6,7 C 5,6 C 92 % 1012,1 hPa 0,0 l/m 0 min 0 min 21 W/m 6,4 km/h (2 Bft) 97,83 %
09.02.2020 08:26 6,9 C 6,7 C 5,6 C 92 % 1012,1 hPa 0,0 l/m 0 min 0 min 21 W/m 12,9 km/h (3 Bft) 97,87 %
09.02.2020 08:28 7,0 C 6,7 C 6,1 C 92 % 1012,1 hPa 0,0 l/m 0 min 0 min 23 W/m 19,3 km/h (3 Bft) 95,74 %
09.02.2020 08:30 7,0 C 7,2 C 6,1 C 92 % 1012,1 hPa 0,0 l/m 0 min 0 min 26 W/m 12,9 km/h (3 Bft) 97,87 %
09.02.2020 08:32 7,1 C 7,2 C 6,1 C 92 % 1012,0 hPa 0,0 l/m 0 min 0 min 28 W/m 19,3 km/h (3 Bft) 97,87 %
09.02.2020 08:34 7,2 C 7,8 C 6,7 C 93 % 1011,9 hPa 0,0 l/m 0 min 0 min 32 W/m 22,5 km/h (4 Bft) 95,65 %
09.02.2020 08:36 7,3 C 7,8 C 6,7 C 93 % 1012,0 hPa 0,0 l/m 0 min 0 min 36 W/m 19,3 km/h (3 Bft) 97,87 %
09.02.2020 08:38 7,3 C 8,3 C 7,2 C 93 % 1012,0 hPa 0,0 l/m 2 min 0 min 42 W/m 22,5 km/h (4 Bft) 97,87 %
09.02.2020 08:40 7,5 C 8,3 C 7,2 C 93 % 1012,0 hPa 0,0 l/m 2 min 0 min 46 W/m 22,5 km/h (4 Bft) 97,87 %
09.02.2020 08:42 7,7 C 8,3 C 7,2 C 93 % 1012,0 hPa 0,0 l/m 2 min 0 min 46 W/m 25,7 km/h (4 Bft) 97,87 %
09.02.2020 08:44 7,8 C 8,3 C 7,8 C 93 % 1012,0 hPa 0,0 l/m 2 min 0 min 47 W/m 22,5 km/h (4 Bft) 95,74 %
09.02.2020 08:46 7,8 C 8,3 C 7,8 C 93 % 1012,0 hPa 0,0 l/m 0 min 0 min 47 W/m 12,9 km/h (3 Bft) 95,65 %
09.02.2020 08:48 7,9 C 8,9 C 7,8 C 92 % 1012,0 hPa 0,0 l/m 0 min 0 min 48 W/m 29,0 km/h (5 Bft) 97,87 %
09.02.2020 08:50 8,1 C 8,9 C 7,8 C 92 % 1011,9 hPa 0,0 l/m 0 min 0 min 51 W/m 29,0 km/h (5 Bft) 97,87 %
09.02.2020 08:52 8,1 C 8,9 C 7,8 C 92 % 1011,9 hPa 0,0 l/m 0 min 0 min 55 W/m 22,5 km/h (4 Bft) 97,87 %
09.02.2020 08:54 8,2 C 8,9 C 7,8 C 92 % 1011,9 hPa 0,0 l/m 2 min 0 min 63 W/m 16,1 km/h (3 Bft) 47,37 %
09.02.2020 08:56 8,3 C 8,9 C 7,8 C 91 % 1012,0 hPa 0,0 l/m 2 min 0 min 78 W/m 38,6 km/h (5 Bft) 97,87 %
09.02.2020 08:58 8,4 C 9,4 C 8,3 C 91 % 1011,9 hPa 0,0 l/m 2 min 0 min 96 W/m 22,5 km/h (4 Bft) 97,83 %
09.02.2020 09:00 8,6 C 9,4 C 8,3 C 90 % 1011,9 hPa 0,0 l/m 2 min 0 min 105 W/m 25,7 km/h (4 Bft) 97,87 %
09.02.2020 09:02 8,7 C 9,4 C 8,9 C 90 % 1011,9 hPa 0,0 l/m 2 min 0 min 103 W/m 35,4 km/h (5 Bft) 93,62 %
09.02.2020 09:04 8,8 C 9,4 C 8,9 C 89 % 1011,9 hPa 0,0 l/m 2 min 0 min 100 W/m 25,7 km/h (4 Bft) 97,87 %
09.02.2020 09:06 8,9 C 10,0 C 8,9 C 88 % 1011,8 hPa 0,0 l/m 2 min 0 min 99 W/m 32,2 km/h (5 Bft) 100,00 %
09.02.2020 09:08 9,0 C 10,0 C 8,9 C 88 % 1011,8 hPa 0,0 l/m 2 min 0 min 97 W/m 32,2 km/h (5 Bft) 100,00 %
09.02.2020 09:10 9,2 C 10,0 C 8,9 C 87 % 1011,6 hPa 0,0 l/m 2 min 0 min 91 W/m 29,0 km/h (5 Bft) 100,00 %
09.02.2020 09:12 9,3 C 10,0 C 8,9 C 86 % 1011,6 hPa 0,0 l/m 2 min 0 min 81 W/m 25,7 km/h (4 Bft) 100,00 %
09.02.2020 09:14 9,3 C 10,0 C 8,9 C 86 % 1011,6 hPa 0,0 l/m 0 min 0 min 73 W/m 29,0 km/h (5 Bft) 97,87 %
09.02.2020 09:16 9,4 C 10,0 C 8,9 C 85 % 1011,7 hPa 0,0 l/m 0 min 0 min 69 W/m 32,2 km/h (5 Bft) 100,00 %
09.02.2020 09:18 9,5 C 10,0 C 8,9 C 84 % 1011,6 hPa 0,0 l/m 0 min 0 min 67 W/m 29,0 km/h (5 Bft) 95,74 %
09.02.2020 09:20 9,6 C 10,0 C 8,9 C 84 % 1011,7 hPa 0,0 l/m 0 min 0 min 62 W/m 35,4 km/h (5 Bft) 97,87 %
09.02.2020 09:22 9,7 C 10,0 C 8,9 C 83 % 1011,6 hPa 0,0 l/m 0 min 0 min 60 W/m 35,4 km/h (5 Bft) 93,48 %
09.02.2020 09:24 9,7 C 10,0 C 8,9 C 82 % 1011,6 hPa 0,0 l/m 0 min 0 min 58 W/m 38,6 km/h (5 Bft) 95,74 %
09.02.2020 09:26 9,8 C 10,0 C 8,9 C 82 % 1011,6 hPa 0,0 l/m 0 min 0 min 58 W/m 29,0 km/h (5 Bft) 97,87 %
09.02.2020 09:28 9,8 C 10,0 C 8,9 C 81 % 1011,6 hPa 0,0 l/m 0 min 0 min 60 W/m 29,0 km/h (5 Bft) 93,62 %
09.02.2020 09:30 9,9 C 10,0 C 8,9 C 81 % 1011,6 hPa 0,0 l/m 0 min 0 min 63 W/m 35,4 km/h (5 Bft) 95,74 %
09.02.2020 09:32 9,9 C 10,0 C 8,9 C 81 % 1011,6 hPa 0,0 l/m 0 min 0 min 69 W/m 35,4 km/h (5 Bft) 95,74 %
09.02.2020 09:34 9,9 C 10,0 C 8,9 C 80 % 1011,5 hPa 0,0 l/m 0 min 0 min 73 W/m 29,0 km/h (5 Bft) 95,65 %
09.02.2020 09:36 10,0 C 10,0 C 8,9 C 80 % 1011,6 hPa 0,0 l/m 0 min 0 min 77 W/m 29,0 km/h (5 Bft) 93,62 %
09.02.2020 09:38 10,1 C 10,0 C 8,9 C 79 % 1011,7 hPa 0,0 l/m 0 min 0 min 77 W/m 29,0 km/h (5 Bft) 95,74 %
09.02.2020 09:40 10,1 C 10,0 C 8,9 C 79 % 1011,5 hPa 0,0 l/m 0 min 0 min 79 W/m 25,7 km/h (4 Bft) 95,74 %
09.02.2020 09:42 10,1 C 10,0 C 8,9 C 79 % 1011,5 hPa 0,0 l/m 0 min 0 min 81 W/m 41,8 km/h (6 Bft) 95,74 %
09.02.2020 09:44 10,1 C 10,0 C 9,4 C 78 % 1011,5 hPa 0,0 l/m 0 min 0 min 85 W/m 41,8 km/h (6 Bft) 95,65 %
09.02.2020 09:46 10,1 C 10,0 C 9,4 C 77 % 1011,4 hPa 0,0 l/m 0 min 0 min 90 W/m 61,2 km/h (7 Bft) 95,74 %
09.02.2020 09:48 10,2 C 10,0 C 9,4 C 77 % 1011,4 hPa 0,0 l/m 0 min 0 min 92 W/m 35,4 km/h (5 Bft) 95,74 %
09.02.2020 09:50 10,2 C 10,0 C 9,4 C 76 % 1011,3 hPa 0,0 l/m 0 min 0 min 94 W/m 57,9 km/h (7 Bft) 95,74 %
09.02.2020 09:52 10,2 C 10,0 C 9,4 C 76 % 1011,2 hPa 0,0 l/m 0 min 0 min 97 W/m 35,4 km/h (5 Bft) 93,62 %
09.02.2020 09:54 10,2 C 10,0 C 9,4 C 76 % 1011,2 hPa 0,0 l/m 0 min 0 min 105 W/m 22,5 km/h (4 Bft) 95,74 %
09.02.2020 09:56 10,3 C 10,6 C 9,4 C 76 % 1011,0 hPa 0,0 l/m 0 min 0 min 115 W/m 25,7 km/h (4 Bft) 93,48 %
09.02.2020 09:58 10,3 C 10,6 C 9,4 C 75 % 1011,0 hPa 0,0 l/m 2 min 0 min 140 W/m 48,3 km/h (6 Bft) 95,74 %
09.02.2020 10:00 10,3 C 10,6 C 9,4 C 75 % 1011,0 hPa 0,0 l/m 2 min 0 min 147 W/m 38,6 km/h (5 Bft) 95,74 %
09.02.2020 10:02 10,3 C 10,6 C 9,4 C 74 % 1010,8 hPa 0,0 l/m 2 min 0 min 173 W/m 38,6 km/h (5 Bft) 95,74 %
09.02.2020 10:04 10,3 C 10,6 C 9,4 C 74 % 1011,0 hPa 0,0 l/m 2 min 0 min 151 W/m 48,3 km/h (6 Bft) 95,74 %
09.02.2020 10:06 10,4 C 10,6 C 9,4 C 73 % 1010,8 hPa 0,0 l/m 2 min 0 min 144 W/m 45,1 km/h (6 Bft) 95,74 %
09.02.2020 10:08 10,4 C 10,6 C 9,4 C 73 % 1010,8 hPa 0,0 l/m 2 min 0 min 142 W/m 41,8 km/h (6 Bft) 95,65 %
09.02.2020 10:10 10,4 C 10,6 C 9,4 C 73 % 1010,7 hPa 0,0 l/m 2 min 0 min 147 W/m 41,8 km/h (6 Bft) 97,87 %
09.02.2020 10:12 10,4 C 10,6 C 9,4 C 73 % 1010,5 hPa 0,0 l/m 2 min 0 min 156 W/m 41,8 km/h (6 Bft) 100,00 %
09.02.2020 10:14 10,5 C 11,1 C 9,4 C 73 % 1010,4 hPa 0,0 l/m 2 min 0 min 197 W/m 29,0 km/h (5 Bft) 100,00 %
09.02.2020 10:16 10,5 C 11,7 C 9,4 C 73 % 1010,4 hPa 0,0 l/m 2 min 0 min 252 W/m 41,8 km/h (6 Bft) 100,00 %
09.02.2020 10:18 10,6 C 11,7 C 9,4 C 72 % 1010,4 hPa 0,0 l/m 2 min 0 min 262 W/m 35,4 km/h (5 Bft) 100,00 %
09.02.2020 10:20 10,6 C 11,7 C 10,0 C 72 % 1010,3 hPa 0,0 l/m 2 min 0 min 255 W/m 51,5 km/h (7 Bft) 97,83 %
09.02.2020 10:22 10,6 C 11,7 C 10,0 C 72 % 1010,2 hPa 0,0 l/m 2 min 0 min 246 W/m 38,6 km/h (5 Bft) 97,87 %
09.02.2020 10:24 10,7 C 12,2 C 10,0 C 71 % 1010,2 hPa 0,0 l/m 2 min 0 min 260 W/m 38,6 km/h (5 Bft) 100,00 %
09.02.2020 10:26 10,7 C 11,7 C 10,0 C 71 % 1010,1 hPa 0,0 l/m 2 min 0 min 253 W/m 70,8 km/h (8 Bft) 100,00 %
09.02.2020 10:28 10,7 C 11,7 C 10,0 C 70 % 1010,1 hPa 0,0 l/m 2 min 0 min 239 W/m 32,2 km/h (5 Bft) 100,00 %
09.02.2020 10:30 10,8 C 11,7 C 10,0 C 70 % 1009,9 hPa 0,0 l/m 2 min 0 min 215 W/m 35,4 km/h (5 Bft) 97,87 %
09.02.2020 10:32 10,8 C 11,1 C 10,0 C 70 % 1009,9 hPa 0,0 l/m 2 min 0 min 175 W/m 38,6 km/h (5 Bft) 97,83 %
09.02.2020 10:34 10,8 C 10,6 C 10,0 C 70 % 1009,9 hPa 0,0 l/m 2 min 0 min 169 W/m 57,9 km/h (7 Bft) 100,00 %
09.02.2020 10:36 10,8 C 10,6 C 10,0 C 70 % 1009,8 hPa 0,0 l/m 2 min 0 min 166 W/m 41,8 km/h (6 Bft) 100,00 %
09.02.2020 10:38 10,8 C 10,6 C 10,0 C 70 % 1009,7 hPa 0,0 l/m 2 min 0 min 161 W/m 64,4 km/h (8 Bft) 100,00 %
09.02.2020 10:40 10,8 C 10,6 C 10,0 C 69 % 1009,7 hPa 0,0 l/m 0 min 0 min 154 W/m 48,3 km/h (6 Bft) 97,87 %
09.02.2020 10:42 10,7 C 10,6 C 10,0 C 69 % 1009,7 hPa 0,0 l/m 0 min 0 min 148 W/m 35,4 km/h (5 Bft) 100,00 %
09.02.2020 10:44 10,7 C 10,6 C 10,0 C 69 % 1009,6 hPa 0,0 l/m 0 min 0 min 148 W/m 45,1 km/h (6 Bft) 100,00 %
09.02.2020 10:46 10,7 C 10,6 C 10,0 C 69 % 1009,6 hPa 0,0 l/m 0 min 0 min 152 W/m 41,8 km/h (6 Bft) 100,00 %
09.02.2020 10:48 10,7 C 10,6 C 10,0 C 68 % 1009,5 hPa 0,0 l/m 0 min 0 min 159 W/m 54,7 km/h (7 Bft) 100,00 %
09.02.2020 10:50 10,7 C 10,6 C 10,0 C 68 % 1009,4 hPa 0,0 l/m 2 min 0 min 165 W/m 48,3 km/h (6 Bft) 97,87 %
09.02.2020 10:52 10,7 C 10,6 C 10,0 C 68 % 1009,3 hPa 0,0 l/m 2 min 0 min 170 W/m 41,8 km/h (6 Bft) 97,87 %
09.02.2020 10:54 10,7 C 11,1 C 10,0 C 68 % 1009,2 hPa 0,0 l/m 2 min 0 min 176 W/m 48,3 km/h (6 Bft) 97,83 %
09.02.2020 10:56 10,8 C 11,1 C 10,0 C 68 % 1009,3 hPa 0,0 l/m 2 min 0 min 182 W/m 35,4 km/h (5 Bft) 97,87 %
09.02.2020 10:58 10,8 C 11,1 C 10,0 C 68 % 1009,2 hPa 0,0 l/m 2 min 0 min 188 W/m 45,1 km/h (6 Bft) 95,74 %
09.02.2020 11:00 10,8 C 11,1 C 10,0 C 68 % 1009,1 hPa 0,0 l/m 2 min 0 min 213 W/m 48,3 km/h (6 Bft) 97,87 %
09.02.2020 11:02 10,8 C 11,1 C 10,0 C 67 % 1009,2 hPa 0,0 l/m 2 min 0 min 219 W/m 51,5 km/h (7 Bft) 95,74 %
09.02.2020 11:04 10,9 C 11,7 C 10,0 C 67 % 1009,3 hPa 0,0 l/m 2 min 0 min 196 W/m 45,1 km/h (6 Bft) 95,74 %
09.02.2020 11:06 10,9 C 11,7 C 10,0 C 67 % 1009,2 hPa 0,0 l/m 2 min 0 min 180 W/m 38,6 km/h (5 Bft) 97,83 %
09.02.2020 11:08 10,9 C 11,1 C 10,6 C 67 % 1009,2 hPa 0,0 l/m 0 min 0 min 154 W/m 51,5 km/h (7 Bft) 97,87 %
09.02.2020 11:10 11,0 C 11,1 C 10,6 C 67 % 1009,2 hPa 0,0 l/m 0 min 0 min 151 W/m 22,5 km/h (4 Bft) 97,87 %
09.02.2020 11:12 11,1 C 11,1 C 10,6 C 66 % 1009,1 hPa 0,0 l/m 0 min 0 min 148 W/m 54,7 km/h (7 Bft) 97,87 %
09.02.2020 11:14 11,1 C 11,1 C 10,6 C 66 % 1009,1 hPa 0,0 l/m 0 min 0 min 157 W/m 38,6 km/h (5 Bft) 97,87 %
09.02.2020 11:16 11,1 C 11,1 C 10,6 C 66 % 1009,0 hPa 0,0 l/m 0 min 0 min 156 W/m 38,6 km/h (5 Bft) 97,87 %
09.02.2020 11:18 11,1 C 11,1 C 10,6 C 66 % 1009,0 hPa 0,0 l/m 0 min 0 min 154 W/m 32,2 km/h (5 Bft) 95,65 %
09.02.2020 11:20 11,2 C 11,1 C 10,6 C 65 % 1009,0 hPa 0,0 l/m 0 min 0 min 162 W/m 48,3 km/h (6 Bft) 97,87 %
09.02.2020 11:22 11,2 C 11,7 C 10,6 C 65 % 1008,9 hPa 0,0 l/m 0 min 0 min 176 W/m 35,4 km/h (5 Bft) 91,49 %
09.02.2020 11:24 11,2 C 11,7 C 10,6 C 65 % 1008,8 hPa 0,0 l/m 0 min 0 min 159 W/m 38,6 km/h (5 Bft) 97,87 %
09.02.2020 11:26 11,3 C 11,7 C 10,6 C 65 % 1008,8 hPa 0,0 l/m 0 min 0 min 141 W/m 41,8 km/h (6 Bft) 95,74 %
09.02.2020 11:28 11,3 C 11,1 C 10,6 C 65 % 1008,7 hPa 0,0 l/m 0 min 0 min 109 W/m 41,8 km/h (6 Bft) 95,74 %
09.02.2020 11:30 11,3 C 11,1 C 10,6 C 65 % 1008,7 hPa 0,0 l/m 0 min 0 min 85 W/m 32,2 km/h (5 Bft) 95,65 %
09.02.2020 11:32 11,3 C 11,1 C 10,6 C 65 % 1008,6 hPa 0,0 l/m 0 min 0 min 74 W/m 45,1 km/h (6 Bft) 95,74 %
09.02.2020 11:34 11,3 C 11,1 C 10,0 C 65 % 1008,6 hPa 0,0 l/m 0 min 0 min 68 W/m 35,4 km/h (5 Bft) 100,00 %
09.02.2020 11:36 11,3 C 11,1 C 10,0 C 65 % 1008,6 hPa 0,0 l/m 0 min 0 min 65 W/m 32,2 km/h (5 Bft) 97,87 %
09.02.2020 11:38 11,3 C 11,1 C 10,6 C 64 % 1008,5 hPa 0,0 l/m 0 min 0 min 64 W/m 51,5 km/h (7 Bft) 95,74 %
09.02.2020 11:40 11,4 C 11,1 C 10,6 C 64 % 1008,3 hPa 0,0 l/m 0 min 0 min 63 W/m 41,8 km/h (6 Bft) 100,00 %
09.02.2020 11:42 11,4 C 11,1 C 10,6 C 63 % 1008,3 hPa 0,0 l/m 0 min 0 min 67 W/m 41,8 km/h (6 Bft) 100,00 %
09.02.2020 11:44 11,4 C 11,1 C 10,6 C 63 % 1008,2 hPa 0,0 l/m 0 min 0 min 71 W/m 32,2 km/h (5 Bft) 100,00 %
09.02.2020 11:46 11,4 C 11,1 C 10,6 C 63 % 1008,2 hPa 0,0 l/m 0 min 0 min 76 W/m 38,6 km/h (5 Bft) 95,74 %
09.02.2020 11:48 11,4 C 11,1 C 10,6 C 63 % 1008,1 hPa 0,0 l/m 0 min 0 min 81 W/m 51,5 km/h (7 Bft) 100,00 %
09.02.2020 11:50 11,4 C 11,1 C 10,6 C 63 % 1008,2 hPa 0,0 l/m 0 min 0 min 82 W/m 45,1 km/h (6 Bft) 97,87 %
09.02.2020 11:52 11,4 C 11,1 C 10,6 C 63 % 1008,0 hPa 0,0 l/m 0 min 0 min 77 W/m 29,0 km/h (5 Bft) 100,00 %
09.02.2020 11:54 11,5 C 11,1 C 10,6 C 62 % 1007,9 hPa 0,0 l/m 0 min 0 min 70 W/m 57,9 km/h (7 Bft) 95,74 %
09.02.2020 11:56 11,5 C 11,1 C 10,6 C 63 % 1007,8 hPa 0,0 l/m 0 min 0 min 69 W/m 29,0 km/h (5 Bft) 100,00 %
09.02.2020 11:58 11,5 C 11,1 C 10,6 C 63 % 1007,7 hPa 0,0 l/m 0 min 0 min 71 W/m 48,3 km/h (6 Bft) 100,00 %
09.02.2020 12:00 11,5 C 11,1 C 10,6 C 62 % 1007,7 hPa 0,0 l/m 0 min 0 min 72 W/m 45,1 km/h (6 Bft) 100,00 %
09.02.2020 12:02 11,5 C 11,1 C 10,6 C 62 % 1007,7 hPa 0,0 l/m 0 min 0 min 70 W/m 57,9 km/h (7 Bft) 97,87 %
09.02.2020 12:04 11,6 C 11,1 C 10,6 C 62 % 1007,7 hPa 0,0 l/m 0 min 0 min 70 W/m 41,8 km/h (6 Bft) 100,00 %
09.02.2020 12:06 11,6 C 11,1 C 10,6 C 62 % 1007,7 hPa 0,0 l/m 0 min 0 min 71 W/m 48,3 km/h (6 Bft) 100,00 %
09.02.2020 12:08 11,6 C 11,1 C 10,6 C 62 % 1007,7 hPa 0,0 l/m 0 min 0 min 78 W/m 45,1 km/h (6 Bft) 95,74 %
09.02.2020 12:10 11,6 C 11,1 C 10,6 C 62 % 1007,7 hPa 0,0 l/m 0 min 0 min 91 W/m 32,2 km/h (5 Bft) 97,87 %
09.02.2020 12:12 11,7 C 11,7 C 10,6 C 62 % 1007,5 hPa 0,0 l/m 0 min 0 min 104 W/m 45,1 km/h (6 Bft) 100,00 %
09.02.2020 12:14 11,7 C 11,7 C 10,6 C 62 % 1007,5 hPa 0,0 l/m 0 min 0 min 109 W/m 38,6 km/h (5 Bft) 100,00 %
09.02.2020 12:16 11,7 C 11,7 C 10,6 C 62 % 1007,5 hPa 0,0 l/m 0 min 0 min 105 W/m 38,6 km/h (5 Bft) 97,83 %
09.02.2020 12:18 11,7 C 11,7 C 10,6 C 61 % 1007,4 hPa 0,0 l/m 0 min 0 min 103 W/m 38,6 km/h (5 Bft) 95,74 %
09.02.2020 12:20 11,8 C 11,7 C 11,1 C 62 % 1007,4 hPa 0,0 l/m 0 min 0 min 102 W/m 35,4 km/h (5 Bft) 100,00 %
09.02.2020 12:22 11,8 C 11,7 C 11,1 C 61 % 1007,3 hPa 0,0 l/m 0 min 0 min 102 W/m 51,5 km/h (7 Bft) 97,87 %
09.02.2020 12:24 11,8 C 11,7 C 11,1 C 61 % 1007,4 hPa 0,0 l/m 0 min 0 min 108 W/m 29,0 km/h (5 Bft) 97,87 %
09.02.2020 12:26 11,8 C 11,7 C 11,1 C 62 % 1007,2 hPa 0,0 l/m 0 min 0 min 114 W/m 32,2 km/h (5 Bft) 95,74 %
09.02.2020 12:28 11,9 C 11,7 C 11,1 C 62 % 1007,3 hPa 0,0 l/m 0 min 0 min 120 W/m 48,3 km/h (6 Bft) 95,65 %
09.02.2020 12:30 11,9 C 11,7 C 11,1 C 62 % 1007,2 hPa 0,0 l/m 0 min 0 min 126 W/m 32,2 km/h (5 Bft) 95,74 %
09.02.2020 12:32 11,9 C 11,7 C 11,1 C 62 % 1007,1 hPa 0,0 l/m 0 min 0 min 132 W/m 48,3 km/h (6 Bft) 95,74 %
09.02.2020 12:34 11,9 C 11,7 C 11,1 C 62 % 1007,1 hPa 0,0 l/m 0 min 0 min 135 W/m 35,4 km/h (5 Bft) 95,74 %
09.02.2020 12:36 11,9 C 11,7 C 11,1 C 62 % 1007,0 hPa 0,0 l/m 0 min 0 min 141 W/m 45,1 km/h (6 Bft) 95,74 %
09.02.2020 12:38 12,0 C 11,7 C 11,1 C 62 % 1007,0 hPa 0,0 l/m 0 min 0 min 143 W/m 51,5 km/h (7 Bft) 93,62 %
09.02.2020 12:40 12,0 C 11,7 C 11,1 C 62 % 1006,8 hPa 0,0 l/m 0 min 0 min 149 W/m 38,6 km/h (5 Bft) 95,65 %
09.02.2020 12:42 12,1 C 11,7 C 11,1 C 62 % 1006,9 hPa 0,0 l/m 0 min 0 min 153 W/m 64,4 km/h (8 Bft) 95,74 %
09.02.2020 12:44 12,1 C 12,2 C 11,1 C 63 % 1006,9 hPa 0,0 l/m 0 min 0 min 153 W/m 54,7 km/h (7 Bft) 93,62 %
09.02.2020 12:46 12,1 C 11,7 C 11,1 C 63 % 1006,8 hPa 0,0 l/m 0 min 0 min 155 W/m 57,9 km/h (7 Bft) 95,74 %
09.02.2020 12:48 12,1 C 12,2 C 11,1 C 63 % 1006,7 hPa 0,0 l/m 0 min 0 min 159 W/m 38,6 km/h (5 Bft) 93,62 %
09.02.2020 12:50 12,1 C 12,2 C 11,7 C 63 % 1006,6 hPa 0,0 l/m 0 min 0 min 166 W/m 38,6 km/h (5 Bft) 95,65 %
09.02.2020 12:52 12,1 C 12,2 C 11,7 C 63 % 1006,5 hPa 0,0 l/m 0 min 0 min 173 W/m 48,3 km/h (6 Bft) 95,74 %
09.02.2020 12:54 12,1 C 12,2 C 11,7 C 63 % 1006,3 hPa 0,0 l/m 0 min 0 min 165 W/m 45,1 km/h (6 Bft) 95,74 %
09.02.2020 12:56 12,2 C 12,2 C 11,7 C 63 % 1006,2 hPa 0,0 l/m 0 min 0 min 157 W/m 45,1 km/h (6 Bft) 95,74 %
09.02.2020 12:58 12,2 C 12,2 C 11,7 C 63 % 1006,3 hPa 0,0 l/m 0 min 0 min 148 W/m 45,1 km/h (6 Bft) 95,74 %
09.02.2020 13:00 12,2 C 12,2 C 11,7 C 63 % 1006,1 hPa 0,0 l/m 0 min 0 min 146 W/m 41,8 km/h (6 Bft) 95,74 %
09.02.2020 13:02 12,2 C 12,2 C 11,7 C 63 % 1006,0 hPa 0,0 l/m 0 min 0 min 165 W/m 70,8 km/h (8 Bft) 95,65 %
09.02.2020 13:04 12,2 C 12,2 C 11,7 C 64 % 1005,8 hPa 0,0 l/m 0 min 0 min 179 W/m 61,2 km/h (7 Bft) 95,74 %
09.02.2020 13:06 12,2 C 12,2 C 11,7 C 64 % 1005,7 hPa 0,0 l/m 0 min 0 min 184 W/m 41,8 km/h (6 Bft) 93,62 %
09.02.2020 13:08 12,3 C 12,2 C 11,7 C 64 % 1005,7 hPa 0,0 l/m 0 min 0 min 185 W/m 45,1 km/h (6 Bft) 95,74 %
09.02.2020 13:10 12,3 C 12,2 C 11,7 C 64 % 1005,6 hPa 0,0 l/m 0 min 0 min 155 W/m 45,1 km/h (6 Bft) 93,62 %
09.02.2020 13:12 12,3 C 12,2 C 11,7 C 64 % 1005,6 hPa 0,0 l/m 0 min 0 min 154 W/m 35,4 km/h (5 Bft) 95,74 %
09.02.2020 13:14 12,3 C 12,2 C 11,7 C 64 % 1005,6 hPa 0,0 l/m 0 min 0 min 140 W/m 70,8 km/h (8 Bft) 97,83 %
09.02.2020 13:16 12,4 C 12,2 C 11,7 C 64 % 1005,5 hPa 0,0 l/m 0 min 0 min 149 W/m 51,5 km/h (7 Bft) 97,87 %
09.02.2020 13:18 12,4 C 12,2 C 11,7 C 64 % 1005,5 hPa 0,0 l/m 0 min 0 min 137 W/m 51,5 km/h (7 Bft) 95,74 %
09.02.2020 13:20 12,4 C 12,2 C 11,7 C 64 % 1005,2 hPa 0,0 l/m 0 min 0 min 113 W/m 48,3 km/h (6 Bft) 97,87 %
09.02.2020 13:22 12,4 C 12,2 C 11,7 C 64 % 1005,1 hPa 0,0 l/m 0 min 0 min 106 W/m 45,1 km/h (6 Bft) 100,00 %
09.02.2020 13:24 12,4 C 12,2 C 11,7 C 64 % 1005,1 hPa 0,0 l/m 0 min 0 min 115 W/m 45,1 km/h (6 Bft) 97,87 %
09.02.2020 13:26 12,4 C 12,2 C 11,7 C 64 % 1005,0 hPa 0,0 l/m 0 min 0 min 132 W/m 48,3 km/h (6 Bft) 97,83 %
09.02.2020 13:28 12,4 C 12,2 C 11,7 C 64 % 1004,8 hPa 0,0 l/m 0 min 0 min 135 W/m 48,3 km/h (6 Bft) 97,87 %
09.02.2020 13:30 12,4 C 12,2 C 11,7 C 64 % 1004,8 hPa 0,0 l/m 0 min 0 min 132 W/m 45,1 km/h (6 Bft) 97,87 %
09.02.2020 13:32 12,4 C 12,2 C 11,7 C 64 % 1004,6 hPa 0,0 l/m 0 min 0 min 152 W/m 29,0 km/h (5 Bft) 97,87 %
09.02.2020 13:34 12,4 C 12,2 C 11,7 C 64 % 1004,6 hPa 0,0 l/m 0 min 0 min 158 W/m 61,2 km/h (7 Bft) 95,74 %
09.02.2020 13:36 12,4 C 12,2 C 11,7 C 64 % 1004,4 hPa 0,0 l/m 0 min 0 min 163 W/m 54,7 km/h (7 Bft) 97,87 %
09.02.2020 13:38 12,4 C 12,2 C 11,7 C 65 % 1004,3 hPa 0,0 l/m 0 min 0 min 169 W/m 38,6 km/h (5 Bft) 97,83 %
09.02.2020 13:40 12,5 C 12,2 C 11,7 C 64 % 1004,2 hPa 0,0 l/m 0 min 0 min 173 W/m 61,2 km/h (7 Bft) 95,74 %
09.02.2020 13:42 12,5 C 12,2 C 11,7 C 65 % 1004,2 hPa 0,0 l/m 0 min 0 min 173 W/m 54,7 km/h (7 Bft) 97,87 %
09.02.2020 13:44 12,5 C 12,2 C 11,7 C 65 % 1004,2 hPa 0,0 l/m 0 min 0 min 175 W/m 64,4 km/h (8 Bft) 97,87 %
09.02.2020 13:46 12,5 C 12,2 C 11,7 C 65 % 1004,1 hPa 0,0 l/m 0 min 0 min 174 W/m 41,8 km/h (6 Bft) 97,87 %
09.02.2020 13:48 12,5 C 12,2 C 11,7 C 65 % 1004,1 hPa 0,0 l/m 0 min 0 min 174 W/m 61,2 km/h (7 Bft) 95,65 %
09.02.2020 13:50 12,5 C 12,2 C 11,7 C 65 % 1004,0 hPa 0,0 l/m 0 min 0 min 171 W/m 74,0 km/h (8 Bft) 97,87 %
09.02.2020 13:52 12,5 C 12,2 C 11,7 C 65 % 1003,8 hPa 0,0 l/m 0 min 0 min 165 W/m 51,5 km/h (7 Bft) 97,87 %
09.02.2020 13:54 12,6 C 12,2 C 11,7 C 65 % 1003,6 hPa 0,0 l/m 0 min 0 min 153 W/m 35,4 km/h (5 Bft) 97,87 %
09.02.2020 13:56 12,5 C 12,2 C 11,7 C 65 % 1003,5 hPa 0,0 l/m 0 min 0 min 141 W/m 51,5 km/h (7 Bft) 97,87 %
09.02.2020 13:58 12,6 C 12,2 C 11,7 C 65 % 1003,6 hPa 0,0 l/m 0 min 0 min 132 W/m 57,9 km/h (7 Bft) 95,74 %
09.02.2020 14:00 12,6 C 12,2 C 11,7 C 65 % 1003,4 hPa 0,0 l/m 0 min 0 min 129 W/m 67,6 km/h (8 Bft) 97,83 %
09.02.2020 14:02 12,6 C 12,2 C 11,7 C 65 % 1003,4 hPa 0,0 l/m 0 min 0 min 133 W/m 54,7 km/h (7 Bft) 97,87 %
09.02.2020 14:04 12,6 C 12,2 C 11,7 C 66 % 1003,1 hPa 0,0 l/m 0 min 0 min 135 W/m 70,8 km/h (8 Bft) 97,87 %
09.02.2020 14:06 12,6 C 12,2 C 11,7 C 66 % 1003,3 hPa 0,0 l/m 0 min 0 min 136 W/m 41,8 km/h (6 Bft) 97,87 %
09.02.2020 14:08 12,6 C 12,2 C 11,7 C 65 % 1003,3 hPa 0,0 l/m 0 min 0 min 133 W/m 41,8 km/h (6 Bft) 97,87 %
09.02.2020 14:10 12,6 C 12,2 C 11,7 C 66 % 1003,4 hPa 0,0 l/m 0 min 0 min 130 W/m 61,2 km/h (7 Bft) 97,87 %
09.02.2020 14:12 12,6 C 12,2 C 11,7 C 66 % 1003,3 hPa 0,0 l/m 0 min 0 min 125 W/m 80,5 km/h (9 Bft) 100,00 %
09.02.2020 14:14 12,6 C 12,2 C 11,7 C 66 % 1003,1 hPa 0,0 l/m 0 min 0 min 133 W/m 64,4 km/h (8 Bft) 100,00 %
09.02.2020 14:16 12,6 C 12,2 C 11,7 C 66 % 1003,1 hPa 0,0 l/m 0 min 0 min 141 W/m 54,7 km/h (7 Bft) 100,00 %
09.02.2020 14:18 12,6 C 12,2 C 11,7 C 66 % 1003,0 hPa 0,0 l/m 0 min 0 min 141 W/m 48,3 km/h (6 Bft) 97,87 %
09.02.2020 14:20 12,6 C 12,2 C 11,7 C 66 % 1003,0 hPa 0,0 l/m 0 min 0 min 133 W/m 45,1 km/h (6 Bft) 100,00 %
09.02.2020 14:22 12,6 C 12,2 C 11,7 C 66 % 1002,9 hPa 0,0 l/m 0 min 0 min 126 W/m 67,6 km/h (8 Bft) 100,00 %
09.02.2020 14:24 12,7 C 12,2 C 11,7 C 66 % 1002,8 hPa 0,0 l/m 0 min 0 min 122 W/m 64,4 km/h (8 Bft) 100,00 %
09.02.2020 14:26 12,7 C 12,2 C 11,7 C 66 % 1002,6 hPa 0,0 l/m 0 min 0 min 111 W/m 57,9 km/h (7 Bft) 100,00 %
09.02.2020 14:28 12,7 C 12,2 C 11,7 C 66 % 1002,6 hPa 0,0 l/m 0 min 0 min 115 W/m 70,8 km/h (8 Bft) 97,87 %
09.02.2020 14:30 12,7 C 12,2 C 11,7 C 66 % 1002,5 hPa 0,0 l/m 0 min 0 min 114 W/m 64,4 km/h (8 Bft) 100,00 %
09.02.2020 14:32 12,7 C 12,2 C 11,7 C 67 % 1002,5 hPa 0,0 l/m 0 min 0 min 117 W/m 35,4 km/h (5 Bft) 100,00 %
09.02.2020 14:34 12,7 C 12,2 C 11,7 C 67 % 1002,5 hPa 0,0 l/m 0 min 0 min 106 W/m 29,0 km/h (5 Bft) 100,00 %
09.02.2020 14:36 12,7 C 12,2 C 11,7 C 67 % 1002,3 hPa 0,0 l/m 0 min 0 min 104 W/m 45,1 km/h (6 Bft) 100,00 %
09.02.2020 14:38 12,7 C 12,2 C 11,7 C 67 % 1002,2 hPa 0,0 l/m 0 min 0 min 105 W/m 45,1 km/h (6 Bft) 100,00 %
09.02.2020 14:40 12,7 C 12,2 C 11,7 C 68 % 1002,1 hPa 0,0 l/m 0 min 0 min 97 W/m 70,8 km/h (8 Bft) 100,00 %
09.02.2020 14:42 12,7 C 12,2 C 11,7 C 67 % 1002,1 hPa 0,0 l/m 0 min 0 min 85 W/m 45,1 km/h (6 Bft) 100,00 %
09.02.2020 14:44 12,8 C 12,2 C 11,7 C 68 % 1002,0 hPa 0,0 l/m 0 min 0 min 76 W/m 45,1 km/h (6 Bft) 100,00 %
09.02.2020 14:46 12,8 C 12,2 C 11,7 C 68 % 1002,0 hPa 0,0 l/m 0 min 0 min 82 W/m 57,9 km/h (7 Bft) 100,00 %
09.02.2020 14:48 12,8 C 12,2 C 11,7 C 68 % 1002,0 hPa 0,0 l/m 0 min 0 min 82 W/m 61,2 km/h (7 Bft) 100,00 %
09.02.2020 14:50 12,8 C 12,2 C 11,7 C 68 % 1002,0 hPa 0,0 l/m 0 min 0 min 82 W/m 45,1 km/h (6 Bft) 100,00 %
09.02.2020 14:52 12,8 C 12,2 C 11,7 C 68 % 1001,8 hPa 0,0 l/m 0 min 0 min 76 W/m 57,9 km/h (7 Bft) 97,87 %
09.02.2020 14:54 12,8 C 12,2 C 11,7 C 68 % 1002,0 hPa 0,0 l/m 0 min 0 min 66 W/m 29,0 km/h (5 Bft) 100,00 %
09.02.2020 14:56 12,8 C 12,2 C 11,7 C 68 % 1001,8 hPa 0,0 l/m 0 min 0 min 58 W/m 57,9 km/h (7 Bft) 97,87 %
09.02.2020 14:58 12,8 C 12,2 C 11,7 C 69 % 1001,8 hPa 0,0 l/m 0 min 0 min 57 W/m 41,8 km/h (6 Bft) 100,00 %
09.02.2020 15:00 12,8 C 12,2 C 11,7 C 69 % 1001,9 hPa 0,0 l/m 0 min 0 min 48 W/m 57,9 km/h (7 Bft) 100,00 %
09.02.2020 15:02 12,8 C 12,2 C 11,7 C 69 % 1001,9 hPa 0,0 l/m 0 min 0 min 41 W/m 48,3 km/h (6 Bft) 97,87 %
09.02.2020 15:04 12,8 C 12,2 C 11,7 C 69 % 1001,9 hPa 0,0 l/m 0 min 0 min 40 W/m 45,1 km/h (6 Bft) 100,00 %
09.02.2020 15:06 12,8 C 12,2 C 11,7 C 69 % 1001,8 hPa 0,0 l/m 0 min 0 min 40 W/m 57,9 km/h (7 Bft) 97,87 %
09.02.2020 15:08 12,8 C 12,2 C 11,7 C 69 % 1001,7 hPa 0,0 l/m 0 min 0 min 42 W/m 45,1 km/h (6 Bft) 100,00 %
09.02.2020 15:10 12,8 C 12,2 C 11,7 C 69 % 1001,6 hPa 0,0 l/m 0 min 0 min 37 W/m 74,0 km/h (8 Bft) 97,83 %
09.02.2020 15:12 12,8 C 12,2 C 11,7 C 69 % 1001,6 hPa 0,0 l/m 0 min 0 min 38 W/m 51,5 km/h (7 Bft) 97,87 %
09.02.2020 15:14 12,8 C 12,2 C 11,7 C 70 % 1001,4 hPa 0,0 l/m 0 min 0 min 36 W/m 45,1 km/h (6 Bft) 100,00 %
09.02.2020 15:16 12,8 C 12,2 C 11,7 C 70 % 1001,3 hPa 0,0 l/m 0 min 0 min 38 W/m 41,8 km/h (6 Bft) 100,00 %
09.02.2020 15:18 12,8 C 12,2 C 11,7 C 70 % 1001,2 hPa 0,0 l/m 0 min 0 min 34 W/m 38,6 km/h (5 Bft) 100,00 %
09.02.2020 15:20 12,8 C 12,2 C 11,7 C 70 % 1001,1 hPa 0,0 l/m 0 min 0 min 34 W/m 54,7 km/h (7 Bft) 100,00 %
09.02.2020 15:22 12,8 C 12,2 C 11,7 C 70 % 1001,0 hPa 0,0 l/m 0 min 0 min 30 W/m 38,6 km/h (5 Bft) 97,83 %
09.02.2020 15:24 12,8 C 12,2 C 11,7 C 70 % 1001,0 hPa 0,0 l/m 0 min 0 min 29 W/m 48,3 km/h (6 Bft) 97,87 %
09.02.2020 15:26 12,8 C 12,2 C 11,7 C 70 % 1001,0 hPa 0,0 l/m 0 min 0 min 28 W/m 48,3 km/h (6 Bft) 93,62 %
09.02.2020 15:28 12,8 C 12,2 C 11,7 C 71 % 1000,9 hPa 0,0 l/m 0 min 0 min 27 W/m 45,1 km/h (6 Bft) 95,74 %
09.02.2020 15:30 12,8 C 12,2 C 11,7 C 71 % 1000,9 hPa 0,0 l/m 0 min 0 min 23 W/m 29,0 km/h (5 Bft) 97,87 %
09.02.2020 15:32 12,8 C 12,2 C 11,7 C 71 % 1000,9 hPa 0,0 l/m 0 min 0 min 24 W/m 38,6 km/h (5 Bft) 97,87 %
09.02.2020 15:34 12,8 C 12,2 C 11,7 C 71 % 1000,8 hPa 0,0 l/m 0 min 0 min 21 W/m 51,5 km/h (7 Bft) 97,83 %
09.02.2020 15:36 12,8 C 12,2 C 11,7 C 71 % 1000,9 hPa 0,0 l/m 0 min 0 min 20 W/m 57,9 km/h (7 Bft) 97,87 %
09.02.2020 15:38 12,8 C 12,2 C 11,7 C 72 % 1000,9 hPa 0,0 l/m 0 min 0 min 21 W/m 41,8 km/h (6 Bft) 97,87 %
09.02.2020 15:40 12,8 C 12,2 C 11,7 C 72 % 1000,9 hPa 0,0 l/m 0 min 0 min 21 W/m 41,8 km/h (6 Bft) 97,87 %
09.02.2020 15:42 12,8 C 12,2 C 11,7 C 72 % 1000,8 hPa 0,0 l/m 0 min 0 min 20 W/m 45,1 km/h (6 Bft) 97,87 %
09.02.2020 15:44 12,8 C 12,2 C 11,7 C 72 % 1000,7 hPa 0,0 l/m 0 min 0 min 20 W/m 48,3 km/h (6 Bft) 97,87 %
09.02.2020 15:46 12,8 C 12,2 C 11,7 C 72 % 1000,7 hPa 0,0 l/m 0 min 0 min 18 W/m 45,1 km/h (6 Bft) 97,83 %
09.02.2020 15:48 12,8 C 12,2 C 11,7 C 72 % 1000,7 hPa 0,0 l/m 0 min 0 min 16 W/m 38,6 km/h (5 Bft) 95,74 %
09.02.2020 15:50 12,8 C 12,2 C 11,7 C 72 % 1000,6 hPa 0,0 l/m 0 min 0 min 16 W/m 54,7 km/h (7 Bft) 95,74 %
09.02.2020 15:52 12,8 C 12,2 C 11,7 C 72 % 1000,5 hPa 0,0 l/m 0 min 0 min 14 W/m 35,4 km/h (5 Bft) 95,74 %
09.02.2020 15:54 12,8 C 12,2 C 11,7 C 72 % 1000,3 hPa 0,0 l/m 0 min 0 min 14 W/m 45,1 km/h (6 Bft) 95,74 %
09.02.2020 15:56 12,8 C 12,2 C 11,7 C 72 % 1000,3 hPa 0,0 l/m 0 min 0 min 15 W/m 57,9 km/h (7 Bft) 91,30 %
09.02.2020 15:58 12,8 C 12,2 C 11,7 C 72 % 1000,1 hPa 0,0 l/m 0 min 0 min 16 W/m 38,6 km/h (5 Bft) 95,74 %
09.02.2020 16:00 12,8 C 12,2 C 11,7 C 73 % 1000,0 hPa 0,0 l/m 0 min 0 min 15 W/m 38,6 km/h (5 Bft) 95,74 %
09.02.2020 16:02 12,8 C 12,2 C 11,7 C 73 % 1000,0 hPa 0,0 l/m 0 min 0 min 17 W/m 35,4 km/h (5 Bft) 95,74 %
09.02.2020 16:04 12,8 C 12,2 C 11,7 C 73 % 999,9 hPa 0,0 l/m 0 min 0 min 18 W/m 45,1 km/h (6 Bft) 95,74 %
09.02.2020 16:06 12,8 C 12,2 C 11,7 C 73 % 999,8 hPa 0,0 l/m 0 min 0 min 18 W/m 35,4 km/h (5 Bft) 95,74 %
09.02.2020 16:08 12,8 C 12,2 C 11,7 C 73 % 999,9 hPa 0,0 l/m 0 min 0 min 16 W/m 35,4 km/h (5 Bft) 95,65 %
09.02.2020 16:10 12,8 C 12,2 C 11,7 C 73 % 999,6 hPa 0,0 l/m 0 min 0 min 16 W/m 48,3 km/h (6 Bft) 94,34 %
09.02.2020 16:12 12,8 C 12,2 C 11,7 C 73 % 999,8 hPa 0,0 l/m 0 min 0 min 16 W/m 57,9 km/h (7 Bft) 95,74 %
09.02.2020 16:14 12,9 C 12,2 C 11,7 C 73 % 999,8 hPa 0,0 l/m 0 min 0 min 16 W/m 48,3 km/h (6 Bft) 93,62 %
09.02.2020 16:16 12,9 C 12,2 C 11,7 C 74 % 999,7 hPa 0,0 l/m 0 min 0 min 14 W/m 38,6 km/h (5 Bft) 95,12 %
09.02.2020 16:18 12,9 C 12,2 C 11,7 C 74 % 999,6 hPa 0,0 l/m 0 min 0 min 12 W/m 41,8 km/h (6 Bft) 95,74 %
09.02.2020 16:20 12,9 C 12,2 C 11,7 C 74 % 999,6 hPa 0,0 l/m 0 min 0 min 13 W/m 32,2 km/h (5 Bft) 95,65 %
09.02.2020 16:22 12,9 C 12,2 C 11,7 C 74 % 999,5 hPa 0,0 l/m 0 min 0 min 12 W/m 35,4 km/h (5 Bft) 95,74 %
09.02.2020 16:24 12,9 C 12,2 C 11,7 C 74 % 999,3 hPa 0,0 l/m 0 min 0 min 14 W/m 38,6 km/h (5 Bft) 93,62 %
09.02.2020 16:26 12,9 C 12,2 C 11,7 C 74 % 999,3 hPa 0,0 l/m 0 min 0 min 12 W/m 48,3 km/h (6 Bft) 95,74 %
09.02.2020 16:28 13,0 C 12,2 C 11,7 C 74 % 999,3 hPa 0,0 l/m 0 min 0 min 9 W/m 61,2 km/h (7 Bft) 95,74 %
09.02.2020 16:30 13,0 C 12,2 C 11,7 C 74 % 999,2 hPa 0,0 l/m 0 min 0 min 9 W/m 51,5 km/h (7 Bft) 93,62 %
09.02.2020 16:32 13,1 C 12,2 C 11,7 C 74 % 999,2 hPa 0,0 l/m 0 min 0 min 7 W/m 32,2 km/h (5 Bft) 95,65 %
09.02.2020 16:34 13,1 C 12,2 C 11,7 C 74 % 999,1 hPa 0,0 l/m 0 min 0 min 8 W/m 51,5 km/h (7 Bft) 93,62 %
09.02.2020 16:36 13,1 C 12,2 C 11,7 C 74 % 999,0 hPa 0,0 l/m 0 min 0 min 7 W/m 41,8 km/h (6 Bft) 95,74 %
09.02.2020 16:38 13,1 C 12,2 C 11,7 C 74 % 998,7 hPa 0,0 l/m 0 min 0 min 5 W/m 61,2 km/h (7 Bft) 95,74 %
09.02.2020 16:40 13,1 C 12,8 C 11,7 C 74 % 998,7 hPa 0,0 l/m 0 min 0 min 6 W/m 54,7 km/h (7 Bft) 95,74 %
09.02.2020 16:42 13,2 C 12,8 C 12,2 C 75 % 998,5 hPa 0,0 l/m 0 min 0 min 6 W/m 54,7 km/h (7 Bft) 95,74 %
09.02.2020 16:44 13,2 C 12,8 C 12,2 C 75 % 998,6 hPa 0,0 l/m 0 min 0 min 7 W/m 48,3 km/h (6 Bft) 95,65 %
09.02.2020 16:46 13,2 C 12,8 C 12,2 C 75 % 998,5 hPa 0,0 l/m 0 min 0 min 7 W/m 64,4 km/h (8 Bft) 97,87 %
09.02.2020 16:48 13,3 C 12,8 C 12,2 C 75 % 998,4 hPa 0,0 l/m 0 min 0 min 5 W/m 45,1 km/h (6 Bft) 97,87 %
09.02.2020 16:50 13,3 C 12,8 C 12,2 C 75 % 998,2 hPa 0,0 l/m 0 min 0 min 5 W/m 61,2 km/h (7 Bft) 95,74 %
09.02.2020 16:52 13,3 C 12,8 C 12,2 C 75 % 998,1 hPa 0,0 l/m 0 min 0 min 5 W/m 74,0 km/h (8 Bft) 97,87 %
09.02.2020 16:54 13,3 C 12,8 C 12,2 C 75 % 998,2 hPa 0,0 l/m 0 min 0 min 7 W/m 45,1 km/h (6 Bft) 100,00 %
09.02.2020 16:56 13,3 C 12,8 C 12,2 C 75 % 998,1 hPa 0,0 l/m 0 min 0 min 4 W/m 45,1 km/h (6 Bft) 100,00 %
09.02.2020 16:58 13,4 C 12,8 C 12,2 C 75 % 998,0 hPa 0,0 l/m 0 min 0 min 0 W/m 54,7 km/h (7 Bft) 100,00 %
09.02.2020 17:00 13,4 C 12,8 C 12,2 C 75 % 997,9 hPa 0,0 l/m 0 min 0 min 4 W/m 61,2 km/h (7 Bft) 100,00 %
09.02.2020 17:02 13,4 C 12,8 C 12,2 C 75 % 997,7 hPa 0,0 l/m 0 min 0 min 2 W/m 45,1 km/h (6 Bft) 100,00 %
09.02.2020 17:04 13,4 C 12,8 C 12,2 C 75 % 997,9 hPa 0,0 l/m 0 min 0 min 0 W/m 45,1 km/h (6 Bft) 97,87 %
09.02.2020 17:06 13,4 C 12,8 C 12,2 C 75 % 997,9 hPa 0,0 l/m 0 min 0 min 0 W/m 67,6 km/h (8 Bft) 100,00 %
09.02.2020 17:08 13,4 C 12,8 C 12,2 C 75 % 997,8 hPa 0,0 l/m 0 min 0 min 0 W/m 51,5 km/h (7 Bft) 100,00 %
09.02.2020 17:10 13,4 C 12,8 C 12,2 C 75 % 997,6 hPa 0,0 l/m 0 min 0 min 0 W/m 61,2 km/h (7 Bft) 100,00 %
09.02.2020 17:12 13,4 C 12,8 C 12,2 C 75 % 997,6 hPa 0,0 l/m 0 min 0 min 0 W/m 48,3 km/h (6 Bft) 100,00 %
09.02.2020 17:14 13,4 C 12,8 C 12,2 C 75 % 997,5 hPa 0,0 l/m 0 min 0 min 0 W/m 48,3 km/h (6 Bft) 100,00 %
09.02.2020 17:16 13,4 C 12,8 C 12,2 C 75 % 997,4 hPa 0,0 l/m 0 min 0 min 0 W/m 77,2 km/h (9 Bft) 97,87 %
09.02.2020 17:18 13,4 C 12,8 C 12,2 C 75 % 997,1 hPa 0,0 l/m 0 min 0 min 0 W/m 51,5 km/h (7 Bft) 100,00 %
09.02.2020 17:20 13,5 C 12,8 C 12,2 C 75 % 997,2 hPa 0,0 l/m 0 min 0 min 2 W/m 74,0 km/h (8 Bft) 97,87 %
09.02.2020 17:22 13,5 C 12,8 C 12,2 C 76 % 997,0 hPa 0,0 l/m 0 min 0 min 0 W/m 51,5 km/h (7 Bft) 100,00 %
09.02.2020 17:24 13,5 C 12,8 C 12,2 C 76 % 997,2 hPa 0,0 l/m 0 min 0 min 0 W/m 48,3 km/h (6 Bft) 100,00 %
09.02.2020 17:26 13,5 C 12,8 C 12,2 C 76 % 997,1 hPa 0,0 l/m 0 min 0 min 0 W/m 67,6 km/h (8 Bft) 100,00 %
09.02.2020 17:28 13,5 C 12,8 C 12,2 C 75 % 996,9 hPa 0,0 l/m 0 min 0 min 0 W/m 70,8 km/h (8 Bft) 100,00 %
09.02.2020 17:30 13,6 C 12,8 C 12,2 C 75 % 996,9 hPa 0,0 l/m 0 min 0 min 0 W/m 48,3 km/h (6 Bft) 100,00 %
09.02.2020 17:32 13,6 C 12,8 C 12,2 C 75 % 996,9 hPa 0,0 l/m 0 min 0 min 0 W/m 51,5 km/h (7 Bft) 100,00 %
09.02.2020 17:34 13,6 C 12,8 C 12,2 C 75 % 996,7 hPa 0,0 l/m 0 min 0 min 0 W/m 64,4 km/h (8 Bft) 100,00 %
09.02.2020 17:36 13,6 C 12,8 C 12,2 C 75 % 996,8 hPa 0,0 l/m 0 min 0 min 0 W/m 51,5 km/h (7 Bft) 100,00 %
09.02.2020 17:38 13,6 C 12,8 C 12,2 C 75 % 996,6 hPa 0,0 l/m 0 min 0 min 0 W/m 38,6 km/h (5 Bft) 100,00 %
09.02.2020 17:40 13,6 C 12,8 C 12,2 C 75 % 996,4 hPa 0,0 l/m 0 min 0 min 0 W/m 61,2 km/h (7 Bft) 100,00 %
09.02.2020 17:42 13,6 C 12,8 C 12,2 C 75 % 996,4 hPa 0,0 l/m 0 min 0 min 0 W/m 48,3 km/h (6 Bft) 100,00 %
09.02.2020 17:44 13,6 C 12,8 C 12,2 C 75 % 996,5 hPa 0,0 l/m 0 min 0 min 0 W/m 64,4 km/h (8 Bft) 100,00 %
09.02.2020 17:46 13,6 C 12,8 C 12,2 C 75 % 996,7 hPa 0,0 l/m 0 min 0 min 0 W/m 67,6 km/h (8 Bft) 100,00 %
09.02.2020 17:48 13,6 C 12,8 C 12,2 C 75 % 996,5 hPa 0,0 l/m 0 min 0 min 0 W/m 57,9 km/h (7 Bft) 100,00 %
09.02.2020 17:50 13,6 C 12,8 C 12,2 C 75 % 996,7 hPa 0,0 l/m 0 min 0 min 0 W/m 51,5 km/h (7 Bft) 100,00 %
09.02.2020 17:52 13,6 C 12,8 C 12,2 C 75 % 996,6 hPa 0,0 l/m 0 min 0 min 0 W/m 54,7 km/h (7 Bft) 100,00 %
09.02.2020 17:54 13,6 C 12,8 C 12,2 C 75 % 996,3 hPa 0,0 l/m 0 min 0 min 0 W/m 51,5 km/h (7 Bft) 100,00 %
09.02.2020 17:56 13,6 C 12,8 C 12,2 C 75 % 996,2 hPa 0,0 l/m 0 min 0 min 0 W/m 70,8 km/h (8 Bft) 100,00 %
09.02.2020 17:58 13,6 C 12,8 C 12,2 C 76 % 996,1 hPa 0,0 l/m 0 min 0 min 0 W/m 48,3 km/h (6 Bft) 97,87 %
09.02.2020 18:00 13,6 C 12,8 C 12,2 C 76 % 995,9 hPa 0,0 l/m 0 min 0 min 0 W/m 54,7 km/h (7 Bft) 100,00 %
09.02.2020 18:02 13,6 C 12,8 C 12,2 C 76 % 995,9 hPa 0,0 l/m 0 min 0 min 0 W/m 51,5 km/h (7 Bft) 100,00 %
09.02.2020 18:04 13,6 C 12,8 C 12,2 C 76 % 995,9 hPa 0,0 l/m 0 min 0 min 0 W/m 70,8 km/h (8 Bft) 100,00 %
09.02.2020 18:06 13,6 C 12,8 C 12,2 C 76 % 995,6 hPa 0,0 l/m 0 min 0 min 0 W/m 41,8 km/h (6 Bft) 100,00 %
09.02.2020 18:08 13,6 C 12,8 C 12,2 C 76 % 995,7 hPa 0,0 l/m 0 min 0 min 0 W/m 54,7 km/h (7 Bft) 97,87 %
09.02.2020 18:10 13,6 C 12,8 C 12,2 C 76 % 995,7 hPa 0,0 l/m 0 min 0 min 0 W/m 61,2 km/h (7 Bft) 100,00 %
09.02.2020 18:12 13,6 C 12,8 C 12,2 C 76 % 995,7 hPa 0,0 l/m 0 min 0 min 0 W/m 61,2 km/h (7 Bft) 100,00 %
09.02.2020 18:14 13,7 C 12,8 C 12,2 C 76 % 995,5 hPa 0,0 l/m 0 min 0 min 0 W/m 38,6 km/h (5 Bft) 97,87 %
09.02.2020 18:16 13,7 C 12,8 C 12,2 C 76 % 995,3 hPa 0,0 l/m 0 min 0 min 0 W/m 54,7 km/h (7 Bft) 95,65 %
09.02.2020 18:18 13,7 C 12,2 C 11,7 C 76 % 995,2 hPa 0,0 l/m 0 min 2 min 0 W/m 48,3 km/h (6 Bft) 97,87 %
09.02.2020 18:20 13,7 C 10,6 C 10,6 C 78 % 995,4 hPa 0,0 l/m 0 min 2 min 0 W/m 51,5 km/h (7 Bft) 97,87 %
09.02.2020 18:22 13,6 C 11,1 C 10,6 C 78 % 995,3 hPa 0,0 l/m 0 min 2 min 0 W/m 67,6 km/h (8 Bft) 95,74 %
09.02.2020 18:24 13,6 C 11,7 C 11,1 C 78 % 995,4 hPa 0,0 l/m 0 min 2 min 0 W/m 77,2 km/h (9 Bft) 97,87 %
09.02.2020 18:26 13,6 C 12,2 C 11,7 C 78 % 995,4 hPa 0,0 l/m 0 min 2 min 0 W/m 57,9 km/h (7 Bft) 97,87 %
09.02.2020 18:28 13,6 C 12,8 C 11,7 C 78 % 995,4 hPa 0,0 l/m 0 min 2 min 0 W/m 61,2 km/h (7 Bft) 97,83 %
09.02.2020 18:30 13,5 C 12,8 C 11,7 C 78 % 995,5 hPa 0,0 l/m 0 min 0 min 0 W/m 70,8 km/h (8 Bft) 97,87 %
09.02.2020 18:32 13,6 C 12,8 C 11,7 C 78 % 995,4 hPa 0,0 l/m 0 min 0 min 0 W/m 54,7 km/h (7 Bft) 95,74 %
09.02.2020 18:34 13,6 C 12,8 C 11,7 C 78 % 995,5 hPa 0,0 l/m 0 min 0 min 0 W/m 70,8 km/h (8 Bft) 97,87 %
09.02.2020 18:36 13,6 C 12,8 C 11,7 C 78 % 995,6 hPa 0,0 l/m 0 min 0 min 0 W/m 57,9 km/h (7 Bft) 97,87 %
09.02.2020 18:38 13,6 C 12,2 C 11,7 C 78 % 995,5 hPa 0,0 l/m 0 min 2 min 0 W/m 45,1 km/h (6 Bft) 97,87 %
09.02.2020 18:40 13,5 C 12,2 C 11,1 C 79 % 995,7 hPa 0,0 l/m 0 min 2 min 0 W/m 67,6 km/h (8 Bft) 97,83 %
09.02.2020 18:42 13,5 C 12,2 C 11,7 C 79 % 995,3 hPa 0,0 l/m 0 min 2 min 0 W/m 77,2 km/h (9 Bft) 95,74 %
09.02.2020 18:44 13,5 C 12,8 C 11,7 C 79 % 995,5 hPa 0,0 l/m 0 min 2 min 0 W/m 54,7 km/h (7 Bft) 95,74 %
09.02.2020 18:46 13,4 C 12,8 C 11,7 C 79 % 995,5 hPa 0,0 l/m 0 min 0 min 0 W/m 61,2 km/h (7 Bft) 97,87 %
09.02.2020 18:48 13,4 C 12,8 C 11,7 C 79 % 995,4 hPa 0,0 l/m 0 min 0 min 0 W/m 45,1 km/h (6 Bft) 97,87 %
09.02.2020 18:50 13,4 C 12,8 C 11,7 C 79 % 995,3 hPa 0,0 l/m 0 min 0 min 0 W/m 45,1 km/h (6 Bft) 97,87 %
09.02.2020 18:52 13,4 C 12,8 C 11,7 C 80 % 996,0 hPa 0,0 l/m 0 min 0 min 0 W/m 57,9 km/h (7 Bft) 91,30 %
09.02.2020 18:54 13,3 C 12,2 C 11,7 C 80 % 995,6 hPa 0,0 l/m 0 min 0 min 0 W/m 41,8 km/h (6 Bft) 91,49 %
09.02.2020 18:56 13,3 C 12,2 C 11,7 C 80 % 995,3 hPa 0,0 l/m 0 min 0 min 0 W/m 38,6 km/h (5 Bft) 95,74 %
09.02.2020 18:58 13,3 C 12,8 C 11,7 C 80 % 995,5 hPa 0,0 l/m 0 min 0 min 0 W/m 64,4 km/h (8 Bft) 95,74 %
09.02.2020 19:00 13,3 C 12,8 C 11,7 C 80 % 995,2 hPa 0,0 l/m 0 min 0 min 0 W/m 64,4 km/h (8 Bft) 95,74 %
09.02.2020 19:02 13,3 C 12,8 C 11,7 C 80 % 995,4 hPa 0,0 l/m 0 min 0 min 0 W/m 38,6 km/h (5 Bft) 95,74 %
09.02.2020 19:04 13,3 C 12,8 C 11,7 C 80 % 994,9 hPa 0,0 l/m 0 min 0 min 0 W/m 64,4 km/h (8 Bft) 97,83 %
09.02.2020 19:06 13,3 C 12,8 C 11,7 C 80 % 994,8 hPa 0,0 l/m 0 min 0 min 0 W/m 57,9 km/h (7 Bft) 97,87 %
09.02.2020 19:08 13,3 C 12,8 C 12,2 C 80 % 995,2 hPa 0,0 l/m 0 min 0 min 0 W/m 67,6 km/h (8 Bft) 97,87 %
09.02.2020 19:10 13,4 C 12,8 C 12,2 C 80 % 994,9 hPa 0,0 l/m 0 min 0 min 0 W/m 67,6 km/h (8 Bft) 95,74 %
09.02.2020 19:12 13,4 C 12,8 C 12,2 C 80 % 994,7 hPa 0,0 l/m 0 min 0 min 0 W/m 64,4 km/h (8 Bft) 97,87 %
09.02.2020 19:14 13,4 C 12,8 C 12,2 C 80 % 994,6 hPa 0,0 l/m 0 min 0 min 0 W/m 61,2 km/h (7 Bft) 95,65 %
09.02.2020 19:16 13,4 C 12,8 C 12,2 C 80 % 994,6 hPa 0,0 l/m 0 min 0 min 0 W/m 70,8 km/h (8 Bft) 97,87 %
09.02.2020 19:18 13,4 C 12,8 C 12,2 C 80 % 994,4 hPa 0,0 l/m 0 min 0 min 0 W/m 61,2 km/h (7 Bft) 95,74 %
09.02.2020 19:20 13,4 C 11,7 C 11,1 C 80 % 994,6 hPa 0,0 l/m 0 min 2 min 0 W/m 64,4 km/h (8 Bft) 95,74 %
09.02.2020 19:22 13,4 C 11,7 C 10,6 C 81 % 994,5 hPa 0,0 l/m 0 min 2 min 0 W/m 74,0 km/h (8 Bft) 93,62 %
09.02.2020 19:24 13,3 C 10,6 C 10,6 C 81 % 994,6 hPa 0,0 l/m 0 min 2 min 0 W/m 67,6 km/h (8 Bft) 95,74 %
09.02.2020 19:26 13,3 C 10,0 C 10,0 C 82 % 994,5 hPa 0,0 l/m 0 min 2 min 0 W/m 70,8 km/h (8 Bft) 93,48 %
09.02.2020 19:28 13,2 C 10,6 C 10,0 C 82 % 994,4 hPa 0,0 l/m 0 min 2 min 0 W/m 70,8 km/h (8 Bft) 93,62 %
09.02.2020 19:30 13,1 C 10,6 C 10,0 C 83 % 994,4 hPa 0,0 l/m 0 min 2 min 0 W/m 51,5 km/h (7 Bft) 93,62 %
09.02.2020 19:32 13,1 C 11,1 C 10,0 C 83 % 994,3 hPa 0,0 l/m 0 min 2 min 0 W/m 45,1 km/h (6 Bft) 95,74 %
09.02.2020 19:34 12,9 C 11,1 C 10,6 C 83 % 994,3 hPa 0,0 l/m 0 min 2 min 0 W/m 67,6 km/h (8 Bft) 93,62 %
09.02.2020 19:36 12,9 C 11,1 C 10,6 C 84 % 994,4 hPa 0,0 l/m 0 min 2 min 0 W/m 61,2 km/h (7 Bft) 93,62 %
09.02.2020 19:38 12,9 C 10,6 C 10,6 C 84 % 994,4 hPa 0,0 l/m 0 min 2 min 0 W/m 61,2 km/h (7 Bft) 97,83 %
09.02.2020 19:40 12,8 C 11,1 C 10,0 C 84 % 994,3 hPa 0,2 l/m 0 min 2 min 0 W/m 77,2 km/h (9 Bft) 97,87 %
09.02.2020 19:42 12,8 C 11,1 C 10,6 C 84 % 994,6 hPa 0,0 l/m 0 min 2 min 0 W/m 67,6 km/h (8 Bft) 97,87 %
09.02.2020 19:44 12,8 C 11,7 C 11,1 C 84 % 994,5 hPa 0,0 l/m 0 min 2 min 0 W/m 57,9 km/h (7 Bft) 97,87 %
09.02.2020 19:46 12,8 C 11,7 C 11,1 C 84 % 994,4 hPa 0,0 l/m 0 min 2 min 0 W/m 64,4 km/h (8 Bft) 93,62 %
09.02.2020 19:48 12,8 C 12,2 C 11,1 C 84 % 994,2 hPa 0,0 l/m 0 min 2 min 0 W/m 93,3 km/h (10 Bft) 97,87 %
09.02.2020 19:50 12,8 C 10,6 C 10,6 C 84 % 994,2 hPa 0,0 l/m 0 min 2 min 0 W/m 61,2 km/h (7 Bft) 97,83 %
09.02.2020 19:52 12,8 C 10,0 C 10,0 C 84 % 994,3 hPa 0,0 l/m 0 min 2 min 0 W/m 54,7 km/h (7 Bft) 97,87 %
09.02.2020 19:54 12,8 C 10,0 C 9,4 C 84 % 994,0 hPa 0,0 l/m 0 min 2 min 0 W/m 70,8 km/h (8 Bft) 97,87 %
09.02.2020 19:56 12,7 C 10,0 C 9,4 C 85 % 994,0 hPa 0,0 l/m 0 min 2 min 0 W/m 64,4 km/h (8 Bft) 97,87 %
09.02.2020 19:58 12,7 C 9,4 C 9,4 C 85 % 994,3 hPa 0,0 l/m 0 min 2 min 0 W/m 61,2 km/h (7 Bft) 95,74 %
09.02.2020 20:00 12,6 C 9,4 C 9,4 C 86 % 994,2 hPa 0,0 l/m 0 min 2 min 0 W/m 57,9 km/h (7 Bft) 100,00 %
09.02.2020 20:02 12,5 C 10,0 C 9,4 C 86 % 994,1 hPa 0,0 l/m 0 min 2 min 0 W/m 64,4 km/h (8 Bft) 97,83 %
09.02.2020 20:04 12,4 C 10,0 C 9,4 C 86 % 994,4 hPa 0,0 l/m 0 min 2 min 0 W/m 70,8 km/h (8 Bft) 91,49 %
09.02.2020 20:06 12,4 C 10,6 C 10,0 C 86 % 993,9 hPa 0,0 l/m 0 min 2 min 0 W/m 74,0 km/h (8 Bft) 97,87 %
09.02.2020 20:08 12,4 C 10,0 C 10,0 C 87 % 993,7 hPa 0,0 l/m 0 min 2 min 0 W/m 64,4 km/h (8 Bft) 97,87 %
09.02.2020 20:10 12,3 C 10,0 C 10,0 C 86 % 993,9 hPa 0,0 l/m 0 min 2 min 0 W/m 51,5 km/h (7 Bft) 97,87 %
09.02.2020 20:12 12,3 C 10,0 C 9,4 C 87 % 993,8 hPa 0,0 l/m 0 min 2 min 0 W/m 48,3 km/h (6 Bft) 97,87 %
09.02.2020 20:14 12,3 C 10,0 C 9,4 C 87 % 993,8 hPa 0,0 l/m 0 min 2 min 0 W/m 51,5 km/h (7 Bft) 95,65 %
09.02.2020 20:16 12,3 C 10,0 C 9,4 C 87 % 993,8 hPa 0,0 l/m 0 min 2 min 0 W/m 48,3 km/h (6 Bft) 97,87 %
09.02.2020 20:18 12,3 C 10,0 C 9,4 C 87 % 993,7 hPa 0,0 l/m 0 min 2 min 0 W/m 67,6 km/h (8 Bft) 97,87 %
09.02.2020 20:20 12,3 C 10,0 C 9,4 C 87 % 993,8 hPa 0,0 l/m 0 min 2 min 0 W/m 67,6 km/h (8 Bft) 100,00 %
09.02.2020 20:22 12,3 C 10,0 C 10,0 C 87 % 993,7 hPa 0,0 l/m 0 min 2 min 0 W/m 51,5 km/h (7 Bft) 100,00 %
09.02.2020 20:24 12,3 C 10,0 C 10,0 C 87 % 993,6 hPa 0,0 l/m 0 min 2 min 0 W/m 48,3 km/h (6 Bft) 100,00 %
09.02.2020 20:26 12,3 C 10,0 C 9,4 C 87 % 993,6 hPa 0,0 l/m 0 min 2 min 0 W/m 67,6 km/h (8 Bft) 100,00 %
09.02.2020 20:28 12,3 C 10,0 C 9,4 C 87 % 993,4 hPa 0,2 l/m 0 min 2 min 0 W/m 64,4 km/h (8 Bft) 100,00 %
09.02.2020 20:30 12,3 C 10,0 C 9,4 C 87 % 993,5 hPa 0,0 l/m 0 min 2 min 0 W/m 51,5 km/h (7 Bft) 97,87 %
09.02.2020 20:32 12,3 C 9,4 C 9,4 C 87 % 993,6 hPa 0,0 l/m 0 min 2 min 0 W/m 57,9 km/h (7 Bft) 100,00 %
09.02.2020 20:34 12,3 C 9,4 C 9,4 C 87 % 993,4 hPa 0,0 l/m 0 min 2 min 0 W/m 96,6 km/h (10 Bft) 97,87 %
09.02.2020 20:36 12,3 C 10,0 C 9,4 C 87 % 993,4 hPa 0,0 l/m 0 min 2 min 0 W/m 83,7 km/h (9 Bft) 100,00 %
09.02.2020 20:38 12,3 C 10,0 C 9,4 C 87 % 993,2 hPa 0,0 l/m 0 min 2 min 0 W/m 64,4 km/h (8 Bft) 100,00 %
09.02.2020 20:40 12,3 C 10,0 C 9,4 C 87 % 993,1 hPa 0,0 l/m 0 min 2 min 0 W/m 57,9 km/h (7 Bft) 100,00 %
09.02.2020 20:42 12,3 C 10,0 C 9,4 C 87 % 993,3 hPa 0,0 l/m 0 min 2 min 0 W/m 51,5 km/h (7 Bft) 100,00 %
09.02.2020 20:44 12,3 C 10,0 C 9,4 C 87 % 993,2 hPa 0,0 l/m 0 min 2 min 0 W/m 57,9 km/h (7 Bft) 100,00 %
09.02.2020 20:46 12,3 C 10,0 C 9,4 C 87 % 993,1 hPa 0,2 l/m 0 min 2 min 0 W/m 67,6 km/h (8 Bft) 100,00 %
09.02.2020 20:48 12,3 C 10,0 C 9,4 C 87 % 993,0 hPa 0,0 l/m 0 min 2 min 0 W/m 67,6 km/h (8 Bft) 97,83 %
09.02.2020 20:50 12,3 C 10,0 C 9,4 C 87 % 993,0 hPa 0,0 l/m 0 min 2 min 0 W/m 70,8 km/h (8 Bft) 100,00 %
09.02.2020 20:52 12,3 C 10,0 C 10,0 C 87 % 993,0 hPa 0,0 l/m 0 min 2 min 0 W/m 48,3 km/h (6 Bft) 97,87 %
09.02.2020 20:54 12,3 C 10,6 C 10,0 C 87 % 992,8 hPa 0,0 l/m 0 min 2 min 0 W/m 54,7 km/h (7 Bft) 95,74 %
09.02.2020 20:56 12,3 C 10,6 C 10,0 C 87 % 992,7 hPa 0,0 l/m 0 min 2 min 0 W/m 70,8 km/h (8 Bft) 100,00 %
09.02.2020 20:58 12,3 C 10,6 C 10,0 C 87 % 992,7 hPa 0,0 l/m 0 min 2 min 0 W/m 74,0 km/h (8 Bft) 100,00 %
09.02.2020 21:00 12,3 C 10,6 C 10,0 C 86 % 992,6 hPa 0,0 l/m 0 min 2 min 0 W/m 80,5 km/h (9 Bft) 100,00 %
09.02.2020 21:02 12,4 C 10,6 C 10,0 C 86 % 992,4 hPa 0,0 l/m 0 min 2 min 0 W/m 64,4 km/h (8 Bft) 95,74 %
09.02.2020 21:04 12,4 C 10,6 C 10,0 C 86 % 992,4 hPa 0,0 l/m 0 min 0 min 0 W/m 54,7 km/h (7 Bft) 100,00 %
09.02.2020 21:06 12,4 C 11,1 C 10,6 C 86 % 992,4 hPa 0,0 l/m 0 min 0 min 0 W/m 74,0 km/h (8 Bft) 100,00 %
09.02.2020 21:08 12,5 C 11,1 C 10,6 C 86 % 992,3 hPa 0,0 l/m 0 min 0 min 0 W/m 61,2 km/h (7 Bft) 97,87 %
09.02.2020 21:10 12,5 C 11,1 C 10,6 C 86 % 992,3 hPa 0,0 l/m 0 min 0 min 0 W/m 48,3 km/h (6 Bft) 97,87 %
09.02.2020 21:12 12,6 C 11,7 C 10,6 C 86 % 992,1 hPa 0,0 l/m 0 min 0 min 0 W/m 61,2 km/h (7 Bft) 97,83 %
09.02.2020 21:14 12,6 C 11,7 C 10,6 C 85 % 992,1 hPa 0,0 l/m 0 min 0 min 0 W/m 54,7 km/h (7 Bft) 97,87 %
09.02.2020 21:16 12,6 C 11,7 C 10,6 C 85 % 992,0 hPa 0,0 l/m 0 min 0 min 0 W/m 83,7 km/h (9 Bft) 97,87 %
09.02.2020 21:18 12,6 C 12,2 C 10,6 C 85 % 992,2 hPa 0,0 l/m 0 min 0 min 0 W/m 54,7 km/h (7 Bft) 97,87 %
09.02.2020 21:20 12,7 C 12,2 C 10,6 C 85 % 992,2 hPa 0,0 l/m 0 min 0 min 0 W/m 77,2 km/h (9 Bft) 97,87 %
09.02.2020 21:22 12,7 C 11,7 C 10,6 C 85 % 991,9 hPa 0,0 l/m 0 min 0 min 0 W/m 57,9 km/h (7 Bft) 97,87 %
09.02.2020 21:24 12,7 C 12,2 C 10,6 C 85 % 991,9 hPa 0,0 l/m 0 min 0 min 0 W/m 70,8 km/h (8 Bft) 97,83 %
09.02.2020 21:26 12,8 C 12,2 C 10,6 C 84 % 991,7 hPa 0,0 l/m 0 min 0 min 0 W/m 64,4 km/h (8 Bft) 97,87 %
09.02.2020 21:28 12,8 C 12,2 C 10,6 C 84 % 991,5 hPa 0,0 l/m 0 min 0 min 0 W/m 93,3 km/h (10 Bft) 95,74 %
09.02.2020 21:30 12,8 C 12,2 C 10,6 C 84 % 991,7 hPa 0,0 l/m 0 min 0 min 0 W/m 64,4 km/h (8 Bft) 97,87 %
09.02.2020 21:32 12,8 C 12,2 C 10,6 C 84 % 991,5 hPa 0,0 l/m 0 min 0 min 0 W/m 48,3 km/h (6 Bft) 97,87 %
09.02.2020 21:34 12,8 C 12,2 C 10,6 C 84 % 991,4 hPa 0,0 l/m 0 min 0 min 0 W/m 61,2 km/h (7 Bft) 95,74 %
09.02.2020 21:36 12,9 C 11,7 C 10,6 C 84 % 991,3 hPa 0,0 l/m 0 min 2 min 0 W/m 57,9 km/h (7 Bft) 95,65 %
09.02.2020 21:38 12,9 C 12,2 C 10,6 C 84 % 991,4 hPa 0,0 l/m 0 min 2 min 0 W/m 64,4 km/h (8 Bft) 95,74 %
09.02.2020 21:40 12,9 C 11,7 C 10,6 C 84 % 991,3 hPa 0,0 l/m 0 min 2 min 0 W/m 57,9 km/h (7 Bft) 95,74 %
09.02.2020 21:42 12,9 C 11,7 C 11,1 C 84 % 991,1 hPa 0,0 l/m 0 min 2 min 0 W/m 51,5 km/h (7 Bft) 95,74 %
09.02.2020 21:44 12,9 C 11,7 C 11,1 C 84 % 991,2 hPa 0,0 l/m 0 min 2 min 0 W/m 64,4 km/h (8 Bft) 95,74 %
09.02.2020 21:46 12,9 C 11,7 C 11,1 C 84 % 991,1 hPa 0,0 l/m 0 min 2 min 0 W/m 96,6 km/h (10 Bft) 93,62 %
09.02.2020 21:48 12,9 C 12,2 C 11,1 C 84 % 991,0 hPa 0,0 l/m 0 min 2 min 0 W/m 54,7 km/h (7 Bft) 95,65 %
09.02.2020 21:50 12,9 C 12,2 C 11,7 C 84 % 990,9 hPa 0,0 l/m 0 min 2 min 0 W/m 86,9 km/h (9 Bft) 95,74 %
09.02.2020 21:52 12,9 C 12,2 C 11,7 C 84 % 990,9 hPa 0,0 l/m 0 min 0 min 0 W/m 57,9 km/h (7 Bft) 95,74 %
09.02.2020 21:54 12,9 C 12,2 C 11,7 C 84 % 991,0 hPa 0,0 l/m 0 min 0 min 0 W/m 67,6 km/h (8 Bft) 95,74 %
09.02.2020 21:56 12,9 C 12,2 C 11,7 C 84 % 990,9 hPa 0,0 l/m 0 min 0 min 0 W/m 70,8 km/h (8 Bft) 97,87 %
09.02.2020 21:58 12,9 C 12,2 C 11,7 C 84 % 990,8 hPa 0,0 l/m 0 min 0 min 0 W/m 57,9 km/h (7 Bft) 97,87 %
09.02.2020 22:00 13,0 C 12,2 C 11,7 C 84 % 990,5 hPa 0,0 l/m 0 min 0 min 0 W/m 77,2 km/h (9 Bft) 97,83 %
09.02.2020 22:02 13,0 C 12,2 C 11,7 C 84 % 990,6 hPa 0,0 l/m 0 min 2 min 0 W/m 61,2 km/h (7 Bft) 93,62 %
09.02.2020 22:04 13,0 C 11,7 C 11,1 C 84 % 990,4 hPa 0,0 l/m 0 min 2 min 0 W/m 45,1 km/h (6 Bft) 95,74 %
09.02.2020 22:06 13,0 C 11,7 C 11,1 C 84 % 990,4 hPa 0,0 l/m 0 min 2 min 0 W/m 67,6 km/h (8 Bft) 97,87 %
09.02.2020 22:08 13,0 C 11,7 C 11,1 C 84 % 990,1 hPa 0,0 l/m 0 min 2 min 0 W/m 64,4 km/h (8 Bft) 95,74 %
09.02.2020 22:10 12,9 C 10,6 C 10,0 C 85 % 990,2 hPa 0,0 l/m 0 min 2 min 0 W/m 54,7 km/h (7 Bft) 97,83 %
09.02.2020 22:12 12,9 C 10,0 C 10,0 C 85 % 990,3 hPa 0,0 l/m 0 min 2 min 0 W/m 64,4 km/h (8 Bft) 97,87 %
09.02.2020 22:14 12,8 C 10,0 C 10,0 C 86 % 990,1 hPa 0,0 l/m 0 min 2 min 0 W/m 64,4 km/h (8 Bft) 97,87 %
09.02.2020 22:16 12,7 C 10,0 C 9,4 C 86 % 989,8 hPa 0,0 l/m 0 min 2 min 0 W/m 67,6 km/h (8 Bft) 97,87 %
09.02.2020 22:18 12,6 C 10,0 C 9,4 C 87 % 989,9 hPa 0,0 l/m 0 min 2 min 0 W/m 57,9 km/h (7 Bft) 97,87 %
09.02.2020 22:20 12,6 C 10,0 C 9,4 C 87 % 989,8 hPa 0,0 l/m 0 min 2 min 0 W/m 74,0 km/h (8 Bft) 100,00 %
09.02.2020 22:22 12,5 C 10,0 C 9,4 C 87 % 990,0 hPa 0,0 l/m 0 min 2 min 0 W/m 45,1 km/h (6 Bft) 100,00 %
09.02.2020 22:24 12,4 C 10,0 C 9,4 C 88 % 989,9 hPa 0,0 l/m 0 min 2 min 0 W/m 54,7 km/h (7 Bft) 97,87 %
09.02.2020 22:26 12,4 C 10,6 C 10,0 C 88 % 989,7 hPa 0,2 l/m 0 min 2 min 0 W/m 57,9 km/h (7 Bft) 97,87 %
09.02.2020 22:28 12,4 C 10,0 C 10,0 C 88 % 989,3 hPa 0,0 l/m 0 min 2 min 0 W/m 54,7 km/h (7 Bft) 100,00 %
09.02.2020 22:30 12,5 C 10,0 C 9,4 C 88 % 989,5 hPa 0,0 l/m 0 min 2 min 0 W/m 67,6 km/h (8 Bft) 100,00 %
09.02.2020 22:32 12,5 C 10,0 C 10,0 C 88 % 989,3 hPa 0,0 l/m 0 min 2 min 0 W/m 64,4 km/h (8 Bft) 100,00 %
09.02.2020 22:34 12,5 C 10,0 C 9,4 C 88 % 989,5 hPa 0,0 l/m 0 min 2 min 0 W/m 57,9 km/h (7 Bft) 97,83 %
09.02.2020 22:36 12,5 C 10,0 C 9,4 C 88 % 989,4 hPa 0,0 l/m 0 min 2 min 0 W/m 83,7 km/h (9 Bft) 97,87 %
09.02.2020 22:38 12,5 C 10,0 C 9,4 C 88 % 989,4 hPa 0,2 l/m 0 min 2 min 0 W/m 90,1 km/h (10 Bft) 100,00 %
09.02.2020 22:40 12,4 C 10,0 C 9,4 C 89 % 989,4 hPa 0,0 l/m 0 min 2 min 0 W/m 80,5 km/h (9 Bft) 100,00 %
09.02.2020 22:42 12,4 C 10,0 C 9,4 C 89 % 989,2 hPa 0,2 l/m 0 min 2 min 0 W/m 61,2 km/h (7 Bft) 100,00 %
09.02.2020 22:44 12,3 C 10,0 C 9,4 C 90 % 989,6 hPa 0,2 l/m 0 min 2 min 0 W/m 77,2 km/h (9 Bft) 97,87 %
09.02.2020 22:46 12,3 C 10,0 C 9,4 C 90 % 989,2 hPa 0,0 l/m 0 min 2 min 0 W/m 67,6 km/h (8 Bft) 100,00 %
09.02.2020 22:48 12,2 C 10,0 C 9,4 C 90 % 989,4 hPa 0,0 l/m 0 min 2 min 0 W/m 51,5 km/h (7 Bft) 100,00 %
09.02.2020 22:50 12,2 C 10,0 C 10,0 C 90 % 989,4 hPa 0,0 l/m 0 min 2 min 0 W/m 64,4 km/h (8 Bft) 97,87 %
09.02.2020 22:52 12,2 C 10,0 C 9,4 C 90 % 989,3 hPa 0,0 l/m 0 min 2 min 0 W/m 67,6 km/h (8 Bft) 97,87 %
09.02.2020 22:54 12,2 C 10,0 C 9,4 C 90 % 989,3 hPa 0,0 l/m 0 min 2 min 0 W/m 83,7 km/h (9 Bft) 97,87 %
09.02.2020 22:56 12,2 C 10,0 C 9,4 C 91 % 989,7 hPa 0,2 l/m 0 min 2 min 0 W/m 67,6 km/h (8 Bft) 95,65 %
09.02.2020 22:58 12,2 C 10,0 C 9,4 C 91 % 989,6 hPa 0,0 l/m 0 min 2 min 0 W/m 77,2 km/h (9 Bft) 97,87 %
09.02.2020 23:00 12,1 C 10,0 C 9,4 C 91 % 989,6 hPa 0,0 l/m 0 min 2 min 0 W/m 70,8 km/h (8 Bft) 97,87 %
09.02.2020 23:02 12,1 C 10,0 C 9,4 C 91 % 989,7 hPa 0,0 l/m 0 min 2 min 0 W/m 70,8 km/h (8 Bft) 97,87 %
09.02.2020 23:04 12,1 C 9,4 C 9,4 C 91 % 989,6 hPa 0,2 l/m 0 min 2 min 0 W/m 83,7 km/h (9 Bft) 97,87 %
09.02.2020 23:06 12,1 C 9,4 C 9,4 C 91 % 989,6 hPa 0,4 l/m 0 min 2 min 0 W/m 61,2 km/h (7 Bft) 97,87 %
09.02.2020 23:08 12,0 C 9,4 C 9,4 C 91 % 989,5 hPa 0,0 l/m 0 min 2 min 0 W/m 57,9 km/h (7 Bft) 97,83 %
09.02.2020 23:10 11,9 C 9,4 C 9,4 C 91 % 989,7 hPa 0,2 l/m 0 min 2 min 0 W/m 54,7 km/h (7 Bft) 97,87 %
09.02.2020 23:12 11,9 C 9,4 C 9,4 C 91 % 989,7 hPa 0,2 l/m 0 min 2 min 0 W/m 38,6 km/h (5 Bft) 97,87 %
09.02.2020 23:14 11,9 C 9,4 C 9,4 C 92 % 989,6 hPa 0,0 l/m 0 min 2 min 0 W/m 51,5 km/h (7 Bft) 95,74 %
09.02.2020 23:16 11,8 C 9,4 C 9,4 C 92 % 989,6 hPa 0,0 l/m 0 min 2 min 0 W/m 32,2 km/h (5 Bft) 95,74 %
09.02.2020 23:18 11,8 C 9,4 C 9,4 C 92 % 989,7 hPa 0,0 l/m 0 min 2 min 0 W/m 38,6 km/h (5 Bft) 95,74 %
09.02.2020 23:20 11,7 C 10,0 C 9,4 C 92 % 989,6 hPa 0,0 l/m 0 min 2 min 0 W/m 41,8 km/h (6 Bft) 97,83 %
09.02.2020 23:22 11,7 C 10,0 C 9,4 C 92 % 989,5 hPa 0,0 l/m 0 min 2 min 0 W/m 57,9 km/h (7 Bft) 97,87 %
09.02.2020 23:24 11,7 C 10,0 C 9,4 C 93 % 989,5 hPa 0,0 l/m 0 min 0 min 0 W/m 41,8 km/h (6 Bft) 97,87 %
09.02.2020 23:26 11,7 C 10,0 C 9,4 C 93 % 989,5 hPa 0,0 l/m 0 min 0 min 0 W/m 45,1 km/h (6 Bft) 97,87 %
09.02.2020 23:28 11,7 C 10,0 C 9,4 C 93 % 989,6 hPa 0,0 l/m 0 min 0 min 0 W/m 38,6 km/h (5 Bft) 97,87 %
09.02.2020 23:30 11,7 C 10,0 C 9,4 C 93 % 989,4 hPa 0,0 l/m 0 min 0 min 0 W/m 25,7 km/h (4 Bft) 97,87 %
09.02.2020 23:32 11,7 C 10,0 C 9,4 C 93 % 989,4 hPa 0,0 l/m 0 min 0 min 0 W/m 41,8 km/h (6 Bft) 95,65 %
09.02.2020 23:34 11,7 C 10,0 C 9,4 C 93 % 989,4 hPa 0,0 l/m 0 min 2 min 0 W/m 32,2 km/h (5 Bft) 97,87 %
09.02.2020 23:36 11,7 C 10,0 C 9,4 C 93 % 989,3 hPa 0,0 l/m 0 min 2 min 0 W/m 38,6 km/h (5 Bft) 95,74 %
09.02.2020 23:38 11,7 C 10,0 C 9,4 C 93 % 989,4 hPa 0,0 l/m 0 min 2 min 0 W/m 48,3 km/h (6 Bft) 97,87 %
09.02.2020 23:40 11,7 C 10,0 C 9,4 C 93 % 989,4 hPa 0,0 l/m 0 min 2 min 0 W/m 29,0 km/h (5 Bft) 95,74 %
09.02.2020 23:42 11,7 C 10,0 C 9,4 C 93 % 989,2 hPa 0,0 l/m 0 min 2 min 0 W/m 45,1 km/h (6 Bft) 97,87 %
09.02.2020 23:44 11,8 C 10,0 C 9,4 C 93 % 989,0 hPa 0,0 l/m 0 min 2 min 0 W/m 41,8 km/h (6 Bft) 97,83 %
09.02.2020 23:46 11,8 C 10,0 C 9,4 C 93 % 989,4 hPa 0,0 l/m 0 min 2 min 0 W/m 35,4 km/h (5 Bft) 100,00 %
09.02.2020 23:48 11,8 C 10,0 C 9,4 C 93 % 989,5 hPa 0,0 l/m 0 min 2 min 0 W/m 48,3 km/h (6 Bft) 97,87 %
09.02.2020 23:50 11,8 C 10,0 C 9,4 C 93 % 989,5 hPa 0,2 l/m 0 min 2 min 0 W/m 35,4 km/h (5 Bft) 100,00 %
09.02.2020 23:52 11,8 C 10,0 C 9,4 C 93 % 989,4 hPa 0,0 l/m 0 min 2 min 0 W/m 45,1 km/h (6 Bft) 100,00 %
09.02.2020 23:54 11,8 C 10,0 C 9,4 C 93 % 989,4 hPa 0,0 l/m 0 min 2 min 0 W/m 38,6 km/h (5 Bft) 100,00 %
09.02.2020 23:56 11,8 C 10,0 C 9,4 C 93 % 989,5 hPa 0,2 l/m 0 min 2 min 0 W/m 35,4 km/h (5 Bft) 100,00 %
09.02.2020 23:58 11,8 C 10,0 C 9,4 C 93 % 989,6 hPa 0,0 l/m 0 min 2 min 0 W/m 19,3 km/h (3 Bft) 95,74 %
_ Min-Zeit 03:02 01:58 02:48 12:18 23:44 - - - - 02:46 08:54
Minimum _ 5,7 C 5,0 C 3,9 C 61 % 989,0 hPa - - - - 3,2 km/h (1 Bft) 47,37 %
_ Max-Zeit 18:14 16:40 16:42 03:42 00:00 23:06 08:20 18:18 10:18 20:34 00:00
Maximum _ 13,7 C 12,8 C 12,2 C 95 % 1019,8 hPa 0,4 l/m 2 min 2 min 262 W/m 96,6 km/h
S (10 Bft)
100,00 %
Durchschnitt _ 10,1 C 9,4 C 8,7 C 82 % 1006,0 hPa #3,0 l/m #1:32 h #4:08 h 93 W/m 38,3 km/h (5 Bft) 97,48 %
© 2020 W. Hausmann